GFSFLT1_sfc_dewp_000.txt.gz
Dewpoint
31 33 38 38 43 41 41 40 42 44 44 44 44 45 44 44 45 45 46 44 43 43 45 44 43 42 42 43 43 42 42 41
33 38 40 39 43 40 39 38 41 40 41 41 41 42 43 44 43 43 45 43 43 43 42 41 42 42 41 41 41 41 41 42
32 36 41 42 41 41 39 39 40 40 39 40 41 42 41 41 42 44 43 45 43 41 43 40 41 41 41 43 42 40 41 41
31 38 41 43 43 43 40 39 39 41 40 38 40 41 41 39 39 41 43 44 45 44 43 42 41 41 41 42 41 40 39 40
33 38 39 43 43 45 43 42 39 39 43 37 40 36 33 34 37 37 37 44 44 42 42 43 42 42 41 42 40 43 41 38
34 34 36 40 42 46 45 43 42 41 42 42 39 40 39 39 40 40 39 40 40 39 40 41 42 43 42 42 42 42 42 41
34 36 37 37 44 45 47 45 41 42 42 43 43 40 41 41 41 39 39 39 40 41 38 39 40 39 39 39 38 38 39 39
37 36 36 39 41 44 46 44 41 41 44 44 42 43 42 41 41 39 37 36 35 36 36 36 36 35 36 36 35 36 36 35
36 38 40 40 42 43 43 39 39 40 42 43 44 43 41 41 39 37 35 34 34 34 33 34 34 34 35 35 34 34 34 35
36 38 39 41 43 43 44 42 41 41 42 44 43 42 40 38 37 36 35 34 29 34 34 34 34 35 35 34 34 33 33 34
37 38 40 41 41 42 44 45 40 39 39 39 37 37 37 35 35 33 32 32 32 33 32 32 32 32 32 32 32 32 33 33
37 39 39 40 41 40 39 38 36 37 37 38 37 34 35 32 31 30 30 32 31 31 30 30 29 28 29 29 29 30 29 29
35 36 37 39 40 41 40 37 36 35 34 35 34 32 31 31 30 31 33 31 32 31 30 28 27 26 27 27 27 26 26 26
35 35 38 39 40 41 41 34 35 33 30 32 31 31 30 30 32 32 31 31 30 29 27 28 27 27 26 26 25 25 25 25
35 36 38 39 41 41 37 32 35 31 29 29 31 30 32 32 32 32 32 31 30 29 28 27 27 25 23 23 22 23 24 24
39 39 38 39 41 41 35 32 33 31 29 28 32 36 35 33 32 32 31 31 28 28 25 25 26 24 21 23 25 25 25 25
40 38 38 40 40 40 32 31 31 30 30 37 39 36 33 32 32 31 31 29 27 25 25 25 25 21 27 30 30 26 25 25
40 39 40 40 39 36 34 34 39 40 40 37 36 36 30 30 29 28 28 26 26 25 24 24 24 24 29 30 29 25 25 25
40 41 40 39 37 37 40 41 38 37 36 36 35 30 27 27 28 26 25 24 24 23 24 24 24 24 28 28 28 26 26 26

GFSFLT1_sfc_dewp_003.txt.gz
Dewpoint
29 31 34 34 34 34 36 34 32 38 39 38 39 39 38 43 46 47 46 45 42 39 43 44 41 41 42 40 39 40 40 40
34 35 33 34 34 32 32 33 35 36 36 36 35 37 38 40 39 43 43 43 40 39 40 42 42 40 40 38 40 38 37 40
31 34 35 33 33 33 32 33 34 35 36 36 36 36 36 37 39 41 43 42 41 40 40 37 38 38 36 38 40 38 39 39
29 31 34 36 35 35 35 34 34 37 35 35 36 38 37 34 35 40 40 40 42 40 40 40 39 39 38 40 38 36 37 39
30 29 31 36 37 38 36 36 37 37 38 35 34 33 32 33 34 35 38 41 42 42 41 41 40 40 40 41 41 41 40 38
30 31 31 31 38 40 40 38 38 39 39 38 35 34 38 36 38 36 38 41 41 40 40 41 41 41 39 38 38 38 41 41
33 34 34 35 39 40 41 40 39 40 40 39 39 36 35 38 37 37 39 38 38 36 35 36 36 35 35 35 34 33 34 36
35 32 34 37 38 39 40 41 41 41 41 41 40 39 36 36 38 37 36 34 35 32 33 33 33 34 34 34 34 33 34 34
34 35 38 39 39 39 40 40 41 40 41 41 42 41 40 37 38 37 34 33 34 32 33 33 32 32 32 32 31 33 34 34
35 37 40 40 40 40 40 39 40 40 38 39 39 40 37 35 32 32 34 33 31 32 32 31 32 34 34 33 35 34 34 34
37 37 40 40 40 39 39 38 36 35 35 33 34 32 30 32 33 31 30 31 30 31 32 34 35 33 32 32 32 32 33 34
35 36 39 40 40 40 39 39 38 31 33 33 32 31 29 28 28 29 29 30 28 31 32 33 32 30 30 30 30 31 31 31
35 37 39 40 40 41 40 40 34 30 34 31 29 28 26 26 27 29 31 30 31 30 31 30 30 30 30 30 29 28 28 27
39 40 40 39 40 41 40 39 31 30 29 28 26 26 25 27 29 28 28 29 30 29 29 31 31 30 29 29 27 27 26 27
40 40 40 39 39 40 40 34 33 32 28 27 27 27 27 29 29 29 29 30 29 30 30 31 31 28 25 25 24 25 25 25
40 39 40 38 40 40 36 33 34 33 29 29 33 34 33 31 31 29 30 30 30 30 29 27 27 26 22 24 25 26 25 25
39 40 40 40 40 37 36 36 38 39 38 39 39 37 35 33 30 31 31 29 28 26 25 26 25 22 28 32 29 27 26 25
40 40 40 40 40 36 36 38 39 40 40 38 39 39 38 37 32 28 27 25 24 23 23 23 24 25 30 29 29 24 24 24
40 39 38 38 37 38 39 40 41 39 38 37 38 39 36 27 27 26 23 22 21 21 22 23 24 23 29 29 28 26 25 25

GFSFLT1_sfc_dewp_006.txt.gz
Dewpoint
31 31 34 34 34 36 34 30 33 38 39 38 39 39 39 41 47 48 48 46 45 41 45 44 41 41 41 40 38 40 39 38
34 33 34 33 33 32 34 33 33 35 36 36 35 35 38 39 41 47 47 45 43 40 41 43 43 40 41 39 38 38 37 38
33 32 32 32 32 31 32 32 33 35 35 35 35 35 36 37 38 40 46 45 43 40 40 41 41 41 39 39 39 38 38 39
31 34 32 32 32 33 32 32 33 35 36 35 36 37 37 37 36 38 41 43 43 41 40 41 39 39 38 37 38 37 36 39
29 30 33 35 34 35 34 35 34 35 37 35 34 32 32 33 34 35 39 42 41 42 41 41 39 40 40 40 40 40 39 37
29 30 30 32 35 37 38 37 37 38 39 39 37 35 35 35 36 35 36 39 41 42 42 42 41 40 37 34 34 32 36 35
32 33 34 36 38 38 40 39 39 40 40 40 39 37 36 36 37 37 39 38 38 39 38 37 36 36 35 34 33 31 32 32
32 32 36 38 38 39 39 39 40 41 41 41 41 41 40 38 36 38 39 36 35 34 34 35 34 34 35 35 36 36 34 32
34 37 38 39 39 39 38 39 38 38 39 40 41 41 42 41 39 39 37 36 35 34 34 35 36 37 37 37 38 38 37 33
37 39 39 39 39 39 39 39 38 39 38 37 35 35 36 33 32 34 34 33 32 34 37 39 41 42 41 36 35 34 34 34
36 38 39 40 39 40 41 40 39 39 34 34 31 30 31 32 31 30 32 34 37 39 41 41 41 38 36 34 34 32 32 33
38 39 40 40 40 41 41 40 40 32 31 33 31 28 29 28 29 30 30 32 34 36 36 35 35 35 34 32 30 31 31 31
39 39 40 40 40 40 40 41 33 32 33 32 31 28 27 28 29 30 31 30 31 30 31 31 31 31 31 30 30 29 28 27
40 40 39 40 40 40 40 39 33 33 31 30 27 26 26 28 28 29 29 29 29 29 28 30 31 31 30 29 28 27 27 26
40 39 39 41 39 40 41 34 35 36 33 28 27 26 27 29 29 29 29 29 29 28 30 31 32 30 28 27 26 26 26 25
39 39 40 40 40 41 37 36 37 36 30 30 32 33 32 31 30 30 32 31 30 30 30 28 27 26 22 28 27 26 25 25
38 40 41 40 40 39 37 37 38 39 38 39 38 37 37 37 37 37 34 31 29 25 24 24 24 22 30 30 29 26 25 24
38 40 41 39 39 37 37 38 40 39 40 39 40 40 39 37 36 34 28 25 22 21 21 21 23 24 28 29 29 24 25 25
39 40 39 38 38 37 38 39 39 39 39 38 37 37 35 30 26 24 21 21 19 19 20 22 23 23 28 27 28 25 25 25

GFSFLT1_sfc_dewp_009.txt.gz
Dewpoint
33 31 34 36 38 35 32 40 40 39 40 39 39 40 41 41 43 48 49 48 48 45 46 46 42 41 41 40 38 39 38 37
33 34 33 34 35 35 31 30 32 36 36 36 36 36 38 39 40 43 48 48 46 44 43 45 43 41 40 40 38 37 37 37
32 33 32 31 32 33 33 33 33 34 34 35 35 34 35 36 39 40 46 47 46 44 41 42 43 41 40 40 39 38 38 39
32 32 31 31 31 32 32 32 32 34 36 35 35 36 36 36 36 37 39 45 47 45 41 40 41 42 40 39 39 38 36 39
30 32 32 33 33 34 34 34 34 35 36 36 35 33 32 34 35 36 36 41 42 45 43 40 40 41 39 38 39 39 38 35
29 29 30 32 34 36 37 39 39 39 40 39 39 38 38 38 38 37 37 38 42 43 43 41 40 42 40 37 35 33 34 33
32 33 35 37 39 39 39 39 39 40 40 41 40 39 39 39 39 39 39 38 39 41 41 40 37 36 36 35 34 34 33 34
32 35 37 38 38 38 38 39 39 39 39 39 39 40 41 40 40 40 39 36 35 35 36 35 35 36 37 39 39 40 40 39
36 38 38 38 39 39 39 39 40 40 40 37 37 37 39 41 41 39 38 35 34 35 37 39 41 41 42 42 42 41 40 39
38 39 39 39 39 39 40 40 40 40 38 35 35 33 34 35 33 34 34 34 35 38 40 41 41 41 41 41 40 39 38 36
38 39 39 39 40 40 41 40 40 39 32 33 33 32 31 31 32 32 32 35 38 40 41 40 41 41 40 39 36 34 32 33
38 39 40 40 40 40 40 40 41 35 32 33 34 32 29 28 30 31 32 35 35 35 34 36 37 36 35 33 31 31 30 30
39 40 40 40 40 40 40 40 38 34 35 34 33 32 28 27 29 30 31 31 31 31 31 31 32 31 31 30 29 29 28 27
40 40 40 40 41 41 40 41 35 35 36 36 33 30 26 28 29 30 31 29 29 29 29 29 30 31 30 29 29 28 27 27
40 40 40 40 41 40 40 38 37 37 37 35 30 26 26 28 29 30 32 32 30 30 30 31 31 28 26 26 26 26 26 25
39 40 39 40 41 40 40 37 38 38 39 32 30 31 32 31 35 37 36 34 33 31 28 26 25 23 21 26 26 26 25 25
40 38 39 41 40 39 38 37 38 39 38 38 38 40 40 40 39 38 36 35 29 25 23 23 23 21 28 30 29 27 26 24
38 38 40 41 39 38 37 37 38 38 38 38 39 39 40 39 37 36 28 24 22 21 21 22 23 24 27 28 28 25 25 24
37 40 40 38 38 37 36 37 37 37 31 27 29 29 27 26 24 22 21 20 19 19 20 23 24 24 26 26 26 24 24 24

GFSFLT1_sfc_dewp_012.txt.gz
Dewpoint
33 32 35 35 41 43 42 43 46 44 42 41 41 40 41 43 42 44 48 49 49 49 47 47 46 43 43 42 39 40 38 37
33 34 35 37 38 35 33 36 38 37 37 37 37 37 37 39 40 41 44 47 48 48 46 46 46 43 41 41 40 38 38 39
32 32 32 34 35 34 33 32 32 33 35 34 35 35 35 36 38 39 41 44 47 47 46 44 44 44 41 40 39 38 38 38
32 32 31 31 31 32 32 32 33 34 35 35 35 35 36 35 35 36 37 40 43 46 46 44 43 43 42 40 39 38 37 38
31 32 31 31 32 33 34 35 36 37 38 37 37 35 35 37 37 37 37 39 40 43 46 45 43 42 42 40 40 39 37 37
28 29 31 37 36 39 39 39 39 40 39 39 40 39 40 41 40 40 40 40 39 40 42 43 42 41 40 40 36 35 35 34
32 34 37 38 38 38 39 39 39 40 40 40 39 38 38 39 39 40 40 40 39 39 41 40 38 36 36 37 39 37 37 37
33 37 38 38 38 39 39 40 39 40 41 38 36 36 36 36 37 38 39 39 35 35 36 37 37 38 40 41 41 41 41 40
38 38 38 38 39 39 40 40 40 41 39 35 35 35 35 35 35 36 37 35 35 38 39 40 40 40 41 42 42 41 40 38
38 39 39 39 39 40 40 41 40 41 39 34 35 35 34 33 33 34 34 35 38 39 39 39 40 41 41 41 40 38 38 38
38 39 39 40 40 40 41 40 40 41 34 35 35 35 35 33 32 33 33 35 38 39 38 37 37 37 39 40 40 39 37 36
38 39 40 40 40 41 41 40 40 41 34 35 36 36 36 32 30 31 34 35 37 35 34 34 35 36 36 35 33 32 31 30
38 39 40 40 40 41 41 40 41 39 35 37 37 37 33 29 28 30 31 30 31 30 31 31 31 30 31 31 30 29 28 27
38 39 40 40 40 41 41 41 41 36 37 37 37 32 27 27 29 30 32 32 32 31 30 30 31 32 31 29 27 27 26 27
39 40 40 40 40 41 41 41 38 38 38 38 32 29 27 29 32 36 36 35 34 34 32 31 29 26 25 24 25 26 26 25
39 40 40 39 39 41 40 39 38 38 39 37 35 35 35 37 37 37 37 36 37 33 27 25 25 23 20 27 26 26 25 25
40 39 38 39 41 40 39 38 38 39 38 37 39 40 39 38 38 38 37 37 37 30 23 23 23 22 28 29 30 28 27 25
35 34 35 39 39 38 37 37 37 38 34 32 34 34 32 31 33 32 26 23 22 21 21 22 23 24 26 26 26 24 25 25
36 35 39 37 37 36 35 30 30 28 28 29 30 30 30 28 23 21 21 20 19 20 21 24 24 21 24 24 24 24 23 23

GFSFLT1_sfc_dewp_015.txt.gz
Dewpoint
34 35 36 41 48 49 51 51 51 52 49 49 47 46 46 47 46 46 48 49 52 53 52 53 52 50 51 51 51 48 44 41
34 37 38 40 45 46 48 46 47 46 44 42 42 41 41 42 41 43 45 45 48 50 49 50 51 50 49 50 48 48 44 43
34 36 38 40 42 43 40 37 38 37 38 40 41 40 40 40 42 44 45 45 45 45 48 47 49 48 50 49 48 45 43 43
33 34 38 39 39 39 36 37 39 40 42 40 41 42 42 40 40 40 41 44 45 45 45 46 47 47 47 49 48 46 43 42
33 34 37 40 40 44 42 42 42 42 44 42 42 39 37 38 40 40 41 44 44 44 44 45 47 47 47 46 46 46 44 41
34 38 40 40 43 43 44 42 43 43 43 41 40 40 40 40 40 40 41 42 43 43 43 44 45 45 46 45 45 44 42 41
35 40 40 40 44 44 44 43 42 43 44 41 41 41 41 40 40 39 38 39 40 41 41 42 43 41 42 42 42 42 41 40
39 39 39 40 41 43 42 42 41 43 44 40 40 41 42 41 40 38 38 37 38 39 40 41 41 42 42 42 41 41 40 39
40 39 40 40 41 42 43 42 42 43 43 42 40 42 40 39 38 39 37 36 38 41 41 41 42 43 42 42 41 40 39 38
39 40 41 42 42 43 44 43 41 42 43 41 40 41 41 39 40 39 36 38 39 41 42 42 42 42 41 40 40 38 38 38
39 40 41 42 43 42 44 44 41 42 43 40 39 40 40 40 38 36 36 38 41 41 41 38 37 37 38 38 39 39 38 37
39 39 41 42 43 43 43 43 42 42 41 39 40 40 39 34 33 34 36 39 38 35 32 33 34 34 34 34 34 33 34 33
40 40 41 42 42 41 42 44 43 41 39 40 40 37 32 31 32 33 34 32 33 33 35 35 34 32 32 32 31 30 28 27
40 40 41 41 40 40 41 42 41 40 39 40 36 32 30 31 36 37 37 36 36 36 35 35 33 29 25 25 24 24 25 25
40 40 40 39 39 41 41 40 40 39 39 38 36 34 33 37 39 38 38 38 37 36 36 35 33 27 22 23 23 25 26 25
40 37 36 37 39 39 38 38 38 39 39 39 38 39 39 39 37 35 35 34 34 37 34 25 24 22 20 26 25 25 25 25
36 34 33 36 38 36 36 37 38 39 37 36 32 33 32 32 33 34 35 32 26 23 22 23 23 20 27 27 26 22 22 22
33 32 34 38 36 34 36 35 35 33 32 30 31 32 32 30 27 24 24 24 23 22 22 23 24 23 23 24 24 21 22 22
32 33 38 36 34 36 33 29 30 30 30 31 32 27 24 24 24 23 23 22 22 21 22 23 21 19 23 23 24 24 25 23

GFSFLT1_sfc_dewp_018.txt.gz
Dewpoint
43 42 38 40 47 51 55 54 52 53 52 52 47 46 45 46 44 44 46 46 48 50 49 50 51 50 49 48 50 48 47 46
35 39 41 42 49 50 49 49 49 47 46 43 42 42 41 41 42 45 47 46 47 49 47 48 48 48 50 51 49 50 48 47
36 40 43 45 45 45 42 40 40 39 40 42 43 43 43 44 45 45 44 46 45 43 46 45 46 45 48 49 50 49 48 48
35 37 41 43 43 43 40 41 43 45 45 43 43 43 43 40 40 39 40 42 42 43 44 45 46 45 44 46 47 48 46 47
34 37 41 43 45 45 44 43 43 43 45 42 43 40 39 40 40 39 40 41 41 41 42 44 45 44 45 45 44 47 47 45
38 39 41 43 46 46 46 43 43 44 44 43 41 41 41 41 41 43 42 39 39 38 41 43 45 44 45 46 46 46 45 43
38 40 40 42 46 46 45 42 41 43 44 43 44 44 43 41 40 38 35 36 35 38 40 43 44 44 45 44 43 42 42 41
39 39 39 41 43 44 43 42 41 42 43 42 41 42 42 41 39 37 37 35 36 38 42 43 43 44 42 42 42 41 40 39
39 39 40 41 43 43 44 42 41 39 40 41 41 41 41 40 38 38 38 37 38 41 42 43 42 41 42 41 41 41 40 40
38 39 40 41 43 43 45 43 42 41 41 43 43 43 42 40 40 39 37 39 37 41 41 40 40 39 39 38 38 36 39 39
38 38 40 41 42 43 45 43 42 43 43 43 41 42 40 39 37 37 37 38 40 40 40 37 36 36 37 38 36 36 37 37
39 39 40 41 43 43 42 42 43 42 41 42 41 39 38 36 35 35 37 39 37 36 33 34 37 39 39 38 36 34 32 33
37 39 40 41 40 39 38 40 39 39 39 38 39 37 36 35 34 35 36 35 35 34 35 36 38 37 36 33 31 29 28 27
37 39 40 39 38 38 37 37 38 37 35 36 37 37 36 35 36 37 36 36 36 37 39 39 35 35 34 32 29 27 27 26
38 39 39 37 35 35 37 37 35 35 36 36 37 38 39 39 40 38 37 36 35 35 34 34 32 27 23 23 24 25 25 24
38 37 34 31 33 37 35 33 34 37 36 35 37 37 36 37 35 33 32 32 30 29 27 26 25 24 18 25 23 23 23 23
36 33 30 30 35 35 31 32 33 35 33 33 32 32 31 32 31 30 27 25 24 24 24 24 24 20 25 25 25 21 21 20
34 31 30 34 36 31 31 31 31 32 32 30 30 32 29 27 25 23 23 24 24 24 24 24 24 24 24 24 24 21 21 22
29 29 32 35 32 30 32 28 29 30 30 30 28 27 26 23 21 21 23 24 24 23 24 24 23 21 23 23 24 24 24 24

GFSFLT1_sfc_dewp_021.txt.gz
Dewpoint
43 42 43 41 49 49 51 55 56 53 52 51 46 45 44 45 44 43 47 48 49 50 49 50 50 48 49 50 53 51 50 50
40 42 43 45 50 51 52 53 52 48 46 43 42 42 42 42 42 46 47 46 47 48 45 46 48 46 49 51 51 51 50 51
39 42 45 46 46 46 44 43 43 42 41 42 44 45 43 44 45 46 45 44 44 43 46 44 46 44 48 50 50 47 48 50
36 40 44 46 46 44 43 43 44 45 45 42 43 43 43 41 41 42 42 44 44 44 45 43 45 46 44 48 48 48 45 47
36 39 42 46 46 46 44 44 43 44 46 43 44 42 41 42 44 43 44 46 43 40 39 41 44 45 46 46 42 46 46 43
38 40 42 44 47 47 46 43 43 44 45 45 44 44 43 43 43 43 42 40 39 37 38 41 43 43 44 46 46 46 45 44
38 39 40 43 46 46 45 43 41 43 45 46 45 44 43 40 40 39 37 37 37 38 37 41 43 44 44 45 43 43 42 41
38 39 39 41 43 44 44 43 42 42 43 43 43 42 42 41 40 38 39 37 36 37 40 42 41 44 43 42 42 42 41 40
38 39 40 41 42 44 45 44 43 42 43 43 44 44 41 41 40 40 38 36 37 39 41 42 42 43 44 43 42 41 41 39
37 38 40 41 42 43 44 44 42 42 43 44 44 42 42 41 41 38 36 38 36 39 41 43 42 41 40 39 39 39 40 39
37 38 40 40 40 42 44 42 40 41 42 42 40 41 41 39 37 37 37 37 38 41 41 41 38 38 39 39 38 38 38 40
36 37 39 40 41 41 39 39 39 39 39 39 39 37 38 36 35 35 36 37 35 35 36 36 39 38 39 38 38 36 36 35
36 37 40 40 39 38 37 38 37 37 36 35 35 35 36 35 35 37 39 36 37 38 40 41 40 38 36 35 34 34 33 32
36 37 37 37 37 37 35 36 35 34 32 32 33 34 37 38 38 40 38 37 36 35 37 39 36 35 30 27 25 25 25 25
36 37 36 36 35 32 34 34 33 31 31 32 32 36 35 35 37 35 33 32 30 28 27 26 27 25 23 23 23 24 24 23
36 36 36 33 29 32 33 32 31 30 31 30 32 33 32 32 32 31 29 28 25 23 23 23 24 23 19 24 24 23 23 22
37 34 31 28 29 32 31 31 30 30 30 30 30 31 31 32 30 29 26 23 22 23 23 23 24 19 26 25 24 22 21 21
36 30 28 28 30 31 29 28 28 27 28 28 29 30 29 29 25 21 21 23 23 23 23 23 23 23 24 24 25 23 21 22
33 29 28 28 28 30 29 26 27 27 26 28 30 29 28 26 22 20 22 23 23 23 24 23 24 22 26 25 25 23 23 23

GFSFLT1_sfc_dewp_024.txt.gz
Dewpoint
43 44 46 49 55 54 54 58 59 59 57 54 53 52 51 52 51 52 53 51 53 53 52 53 53 51 50 51 52 51 51 51
44 46 49 51 55 54 54 54 54 52 51 49 49 50 50 50 50 52 51 51 49 50 49 49 49 49 49 50 49 48 48 49
43 46 48 49 49 49 48 47 49 48 47 48 50 50 50 50 50 48 49 49 48 47 48 47 47 47 47 47 47 47 47 48
41 44 48 50 49 49 46 47 48 49 50 47 48 48 49 47 48 47 48 50 49 49 49 48 47 46 46 46 46 45 45 46
39 43 46 49 50 51 48 47 46 47 49 48 49 47 45 47 47 46 45 48 47 44 44 45 46 47 45 46 45 47 45 43
40 42 45 47 51 51 50 47 46 48 48 50 49 48 47 46 46 46 45 45 44 43 42 43 45 46 46 46 44 43 42 41
39 41 44 46 51 50 50 47 45 47 47 48 47 46 46 45 45 44 43 42 41 41 41 43 44 45 45 44 43 42 41 41
40 40 40 43 46 48 47 47 45 47 48 48 48 48 48 46 44 43 41 39 39 39 41 43 44 45 44 43 42 42 41 39
41 42 42 43 45 46 47 46 45 44 47 47 47 47 45 43 43 40 39 39 39 41 44 44 44 44 43 42 42 42 41 41
39 40 43 43 44 45 47 45 43 43 45 46 46 45 45 43 41 41 40 40 37 41 42 43 41 40 41 41 40 39 40 41
38 38 41 42 43 44 47 44 41 42 42 43 40 41 41 41 40 40 39 40 39 39 40 40 40 41 40 40 39 39 40 39
38 38 41 42 44 44 43 41 39 39 39 40 40 39 39 39 39 40 41 40 39 38 40 41 41 40 39 38 37 36 35 35
37 38 40 40 41 41 39 40 39 38 37 36 36 38 40 39 38 37 39 40 39 38 37 39 39 39 38 37 34 33 33 32
36 38 39 37 38 37 36 38 37 35 32 33 34 36 37 36 37 38 38 37 35 34 32 32 31 31 30 28 26 27 26 25
36 37 37 37 36 33 33 35 36 34 31 32 34 36 36 35 36 37 36 34 32 29 28 28 29 26 24 25 25 26 25 23
37 37 37 34 32 32 33 35 33 34 31 31 33 35 34 35 35 35 34 32 28 27 26 28 28 25 21 26 25 25 24 23
36 36 34 31 30 30 33 33 32 33 31 31 31 34 34 34 34 34 32 28 27 27 27 27 27 21 27 26 25 24 24 23
36 35 33 30 30 28 28 31 32 31 30 29 31 35 32 32 31 29 26 27 27 27 27 27 27 27 27 26 26 24 24 23
35 32 30 29 27 26 29 29 31 31 31 32 28 34 32 31 31 28 27 27 27 26 27 27 27 25 30 28 27 25 23 23

GFSFLT1_sfc_dewp_027.txt.gz
Dewpoint
46 49 50 51 52 53 52 52 55 56 55 52 51 49 49 49 49 49 48 50 48 46 47 48 48 47 47 48 47 47 48 48
45 46 47 47 46 46 46 47 47 46 45 45 45 45 46 46 48 46 45 47 47 47 47 45 45 45 46 45 45 45 45 47
46 48 48 49 45 45 45 45 45 45 45 46 46 46 46 46 48 47 48 47 46 45 46 46 46 45 45 44 44 43 45 45
44 45 46 46 45 44 44 45 45 46 45 45 46 46 46 45 45 44 46 46 45 43 42 43 43 45 44 43 45 45 44 44
44 45 45 46 46 46 44 44 44 45 45 45 45 45 43 45 44 44 43 43 42 41 42 42 43 44 43 45 43 42 41 40
42 44 45 46 46 45 44 44 44 45 46 46 46 43 44 44 44 43 42 42 41 40 39 40 41 43 45 42 41 42 41 40
41 44 45 46 46 45 44 44 44 45 45 44 43 43 44 44 42 41 41 40 40 39 38 41 44 44 43 44 43 41 41 40
38 39 41 44 42 44 43 44 43 44 46 45 44 44 43 42 41 40 38 38 38 38 42 43 44 43 43 42 42 41 41 39
37 39 39 41 42 43 43 43 42 44 45 44 44 42 43 41 39 38 38 37 37 39 41 41 39 40 41 41 42 42 40 39
37 39 40 41 41 43 43 39 40 42 42 41 40 41 41 38 37 37 38 39 37 39 39 39 39 39 39 41 40 38 38 38
37 39 40 41 41 42 41 39 39 38 37 37 36 36 37 38 38 39 39 39 38 37 40 40 40 40 40 38 38 38 37 36
38 39 40 40 41 41 39 37 37 35 34 35 35 38 38 38 37 37 38 38 39 38 38 40 39 39 39 38 37 37 36 34
36 38 38 38 37 37 37 37 35 34 33 33 33 38 37 35 35 35 36 36 38 36 34 33 37 38 37 37 36 32 28 26
37 37 37 37 37 35 34 35 33 32 30 31 31 33 35 32 34 35 36 35 34 32 30 28 29 29 28 27 27 27 25 25
37 37 37 36 35 32 31 34 33 32 30 30 31 32 34 33 34 34 34 33 31 27 27 28 29 27 26 26 25 25 25 25
37 36 35 35 32 31 31 34 33 33 31 31 32 33 35 34 34 34 34 31 28 26 26 27 27 26 23 24 24 24 24 24
36 36 35 34 30 29 29 30 34 33 30 32 33 35 34 35 34 33 33 27 24 25 25 26 26 23 28 27 26 24 24 24
35 35 34 30 29 27 27 29 30 30 31 34 35 36 37 37 37 35 28 24 24 24 25 27 27 25 28 27 27 25 24 23
35 33 30 28 28 27 27 26 26 27 32 31 34 36 37 37 36 33 27 25 23 24 26 27 26 25 30 31 30 26 25 24

GFSFLT1_sfc_dewp_030.txt.gz
Dewpoint
46 47 48 50 52 55 56 58 58 59 56 53 51 49 47 49 49 47 49 48 48 47 47 46 46 45 46 45 44 44 44 44
46 47 49 45 46 47 50 52 49 48 48 48 47 45 46 47 46 48 47 46 46 45 45 44 45 45 44 44 44 43 43 44
44 47 48 48 50 47 47 45 45 44 45 45 46 45 47 46 45 46 45 43 43 40 42 42 42 44 43 43 43 44 44 43
44 45 48 47 45 45 44 44 44 45 45 45 45 45 45 44 44 43 43 42 41 41 41 41 41 43 42 43 42 42 41 41
44 44 45 44 44 44 43 44 44 45 45 45 44 43 41 43 43 42 41 41 40 40 40 40 41 42 43 43 42 40 41 39
44 44 45 45 44 43 44 44 44 45 46 45 45 43 44 44 43 40 39 40 40 39 41 42 43 44 43 41 41 41 40 39
44 45 45 45 45 44 44 44 44 45 45 45 45 43 43 41 40 38 39 39 38 40 42 42 43 42 42 41 41 40 39 38
43 44 44 45 44 44 44 43 44 44 44 43 43 42 41 39 38 37 37 36 37 38 41 41 42 41 40 40 40 39 38 38
40 40 41 42 42 42 42 42 43 44 44 41 41 42 40 39 37 37 37 37 37 38 40 39 39 39 39 39 39 39 39 37
39 40 40 41 42 42 39 40 41 40 40 38 38 40 38 37 37 38 38 38 37 38 38 38 39 39 39 38 38 37 37 36
39 39 40 41 41 41 40 39 37 36 35 35 35 37 38 38 38 38 38 37 38 38 38 39 39 39 39 38 36 36 35 35
38 38 38 38 38 37 38 37 35 33 33 34 36 38 38 37 36 36 37 37 36 37 37 36 38 38 37 36 36 36 34 31
38 38 37 37 36 35 37 36 34 32 32 32 32 38 37 36 35 35 35 34 36 37 34 29 29 30 30 31 31 27 25 24
37 37 36 36 35 34 32 35 32 32 31 31 31 32 36 35 34 35 35 36 34 34 29 27 27 28 27 27 27 26 25 25
36 36 36 36 35 32 31 33 34 34 32 30 31 32 32 35 34 36 37 37 37 31 27 27 28 27 25 25 24 23 23 24
36 36 36 35 33 30 29 30 33 33 31 32 34 34 34 35 34 36 38 38 36 32 27 26 27 25 23 23 23 24 24 24
36 35 34 34 31 29 28 29 30 31 32 34 35 36 36 36 37 37 38 38 38 28 25 26 27 23 29 28 26 24 24 24
35 33 33 31 28 27 26 26 27 28 32 33 35 35 36 36 37 37 38 37 30 27 27 27 27 25 29 29 31 27 25 24
33 31 27 27 26 25 25 23 24 27 31 33 34 35 35 35 36 36 33 31 32 32 28 28 27 26 30 31 31 27 26 26

GFSFLT1_sfc_dewp_033.txt.gz
Dewpoint
46 48 52 53 55 56 57 58 59 58 53 51 49 46 46 46 47 46 45 44 44 44 43 43 44 44 44 44 43 43 42 44
46 48 47 48 52 53 54 53 50 48 50 52 49 46 45 46 44 44 42 42 42 42 41 41 42 42 43 42 43 42 43 42
44 48 49 50 51 48 46 43 44 44 44 45 45 45 45 44 43 42 42 42 41 39 39 39 40 41 41 41 43 43 43 41
46 47 49 47 45 44 43 43 43 44 45 45 45 45 45 43 42 41 41 41 40 39 39 40 41 42 42 42 41 40 40 40
48 46 44 43 44 44 44 44 44 44 45 44 42 42 41 43 42 41 39 40 39 40 41 42 43 43 42 42 41 39 39 37
43 43 43 43 43 43 43 44 45 46 45 45 44 43 44 43 41 38 38 38 39 41 42 42 41 42 41 40 39 39 39 37
44 44 44 44 44 44 43 43 45 45 45 44 44 43 42 40 38 38 38 37 38 40 41 41 41 41 40 39 39 38 37 37
44 44 44 45 44 43 43 43 43 43 43 42 42 41 39 37 36 36 36 36 36 37 39 39 40 40 39 39 38 37 36 36
42 42 43 42 42 42 41 43 43 43 41 41 42 40 39 38 37 37 37 37 37 37 39 39 38 39 39 38 37 37 37 35
39 40 41 41 41 40 39 41 40 41 39 38 39 40 38 38 37 37 37 37 37 37 38 38 38 38 38 37 37 36 35 35
39 39 40 40 40 39 39 39 37 35 34 34 34 35 38 37 38 38 38 37 37 37 37 38 38 38 37 37 35 35 34 33
37 37 37 37 37 36 37 35 34 33 33 33 34 36 37 37 37 37 37 36 36 37 37 35 36 37 36 36 34 34 30 26
37 36 36 36 35 34 36 36 35 33 33 33 33 36 37 37 36 36 35 35 35 37 35 32 29 31 30 28 28 26 24 23
36 35 35 35 35 33 32 33 35 33 33 32 31 31 32 34 35 35 35 36 36 36 36 35 32 29 27 27 26 25 24 24
36 36 36 35 35 31 30 31 33 33 32 31 32 33 33 33 34 35 35 36 36 37 37 34 32 29 27 25 24 23 23 24
36 35 35 34 33 29 28 29 29 30 31 33 33 35 34 34 34 35 36 37 37 37 37 35 29 27 23 23 23 24 24 24
35 33 32 29 27 26 26 26 26 29 32 32 34 35 35 35 36 35 36 36 37 37 30 27 28 24 29 29 28 26 25 25
34 30 27 26 25 25 23 24 25 26 30 32 34 35 34 34 35 35 35 35 36 30 31 29 27 26 29 30 30 29 26 26
27 25 23 24 23 22 23 23 23 27 30 31 32 32 34 34 34 33 30 31 34 35 31 28 25 26 29 29 27 24 23 23

GFSFLT1_sfc_dewp_036.txt.gz
Dewpoint
47 51 55 56 57 59 59 60 59 56 55 53 49 46 45 45 43 43 43 43 44 43 41 41 42 41 41 42 41 42 42 43
47 49 51 52 54 56 58 58 58 54 53 49 47 46 43 43 42 42 42 42 40 39 39 39 40 40 41 41 42 42 42 41
47 48 51 51 52 52 50 46 45 45 45 45 44 43 43 42 42 41 41 40 39 38 39 40 41 41 42 42 41 41 42 40
48 48 47 46 43 42 42 43 43 44 45 45 45 45 44 42 41 40 40 39 39 39 40 41 42 42 42 41 40 39 38 39
46 44 43 42 43 43 43 43 43 44 45 43 42 41 41 42 41 40 38 38 39 41 41 41 41 41 40 40 40 39 38 36
44 43 42 43 43 43 43 44 45 45 45 44 43 43 43 42 39 37 37 37 39 41 41 41 40 41 40 39 39 38 38 37
43 43 43 43 44 43 43 44 44 45 44 44 43 43 41 38 37 37 37 37 37 39 40 40 40 40 39 39 38 37 37 36
43 44 43 44 43 43 43 43 43 43 43 43 43 42 40 38 37 36 35 36 36 36 37 39 40 39 39 38 37 37 36 35
43 45 44 43 42 42 42 43 42 41 41 41 41 40 38 37 36 37 37 36 36 36 37 39 38 38 38 38 37 37 36 35
40 42 41 41 40 39 41 41 42 41 39 40 40 39 38 37 37 36 37 37 37 37 37 37 38 37 38 38 37 37 36 35
39 39 39 40 38 38 39 40 38 39 36 35 34 35 36 37 37 36 37 37 37 36 37 37 37 38 38 38 37 36 35 35
36 36 36 36 35 35 37 36 34 34 33 34 34 34 36 37 37 37 37 37 36 36 36 36 36 34 36 36 35 33 33 28
36 36 35 35 34 34 36 36 36 34 33 33 32 32 34 35 36 36 36 35 35 35 35 34 32 32 32 30 29 28 25 24
35 34 34 35 35 33 32 33 34 33 32 31 30 32 32 32 32 34 34 34 35 35 35 35 36 36 33 30 27 26 24 24
35 35 35 35 35 31 29 29 30 29 29 31 32 32 33 33 33 33 34 35 35 35 36 37 36 33 29 27 24 23 24 25
35 34 34 32 28 27 26 26 27 28 30 31 32 34 34 34 34 35 35 35 36 37 38 37 33 28 24 23 24 25 25 25
34 32 29 26 25 24 24 24 25 27 30 31 33 34 34 33 34 34 34 34 34 37 30 29 27 24 28 30 31 29 28 26
34 27 25 24 24 23 21 23 25 25 29 31 33 33 32 33 34 34 32 30 32 32 31 29 27 27 30 30 28 24 23 22
29 25 23 23 22 21 22 22 23 26 28 30 30 30 31 33 32 32 31 33 35 35 31 26 25 26 29 27 26 23 21 21

GFSFLT1_sfc_dewp_039.txt.gz
Dewpoint
52 56 58 59 59 59 60 59 59 56 54 53 53 49 46 46 45 44 45 44 45 44 43 44 42 41 42 43 44 42 44 44
53 55 57 59 60 60 59 59 59 55 52 51 48 48 44 44 43 44 44 43 43 44 41 42 42 40 43 44 42 42 39 42
52 53 55 58 59 59 59 55 54 51 48 47 47 45 44 43 43 43 43 43 42 41 43 41 42 38 40 41 42 37 38 42
48 49 51 53 53 54 55 54 51 50 48 47 46 46 44 43 42 41 41 41 41 42 42 42 42 41 38 40 41 41 36 39
45 44 44 45 46 46 46 47 46 47 48 47 47 44 43 45 44 41 40 41 41 42 42 43 43 42 40 40 40 42 41 35
43 43 43 44 46 47 47 46 47 48 48 48 47 46 45 43 42 42 42 41 40 41 42 43 43 42 42 43 42 42 41 38
43 44 44 44 47 47 47 46 46 47 47 47 47 47 44 42 42 41 41 40 39 41 41 43 43 43 43 42 43 42 41 39
44 44 43 44 45 46 46 46 45 46 46 47 47 46 45 43 41 40 39 38 38 39 41 41 41 42 42 42 42 41 40 39
44 44 45 45 46 46 45 44 44 44 44 44 44 43 42 41 40 40 40 39 39 41 41 41 41 41 41 41 41 42 40 40
44 45 46 44 44 43 45 44 43 42 42 43 43 42 42 41 41 41 40 41 39 40 41 40 40 41 41 41 40 38 37 38
42 42 43 42 41 41 43 43 42 42 39 39 37 37 37 39 40 40 40 40 39 39 39 39 39 40 40 38 37 36 36 37
39 38 38 37 37 39 40 40 37 36 36 36 37 36 37 38 37 37 37 37 36 36 37 37 38 37 35 34 34 32 32 32
36 36 36 36 35 38 37 38 37 35 35 35 34 35 35 34 34 34 37 36 37 37 37 37 36 36 35 36 36 30 28 27
35 35 35 35 34 34 33 35 32 31 30 30 34 34 33 33 34 35 35 34 34 35 37 37 37 37 36 34 30 28 26 25
35 35 35 35 33 31 29 30 29 28 28 31 34 34 34 34 35 35 34 35 34 35 38 38 38 36 34 29 26 26 27 27
35 35 34 32 30 30 28 27 27 28 27 31 33 35 35 34 33 35 34 35 35 35 37 37 33 29 25 26 27 29 28 26
34 33 31 27 26 25 25 25 26 28 27 31 34 35 33 32 34 34 34 34 32 33 31 30 29 26 31 31 29 25 23 19
34 30 27 26 25 24 22 23 26 26 27 31 32 32 31 32 32 32 33 34 33 33 34 34 29 28 30 28 26 21 19 17
33 27 25 25 24 22 24 23 24 25 29 30 29 30 31 31 30 30 33 33 34 35 33 28 26 26 26 25 23 21 19 17

GFSFLT1_sfc_dewp_042.txt.gz
Dewpoint
52 54 55 53 58 60 61 61 59 58 59 58 55 49 47 46 46 46 46 46 47 46 46 46 42 39 36 38 39 37 37 38
54 57 58 58 60 61 60 60 60 60 58 53 48 46 46 46 45 46 46 45 46 47 42 40 38 37 39 39 37 36 34 37
55 57 58 58 59 60 60 59 60 58 54 50 48 47 46 45 45 46 45 46 44 40 40 37 38 36 39 40 39 36 33 34
55 56 58 59 59 59 57 56 55 52 50 48 48 48 46 44 44 43 44 43 41 40 40 39 39 38 36 39 38 38 34 33
50 49 52 54 55 54 50 50 50 50 50 47 47 44 43 46 47 44 43 42 39 38 39 40 41 40 40 39 35 39 37 34
42 42 44 44 48 49 49 48 47 48 49 48 48 47 47 46 45 45 44 42 40 37 39 41 41 40 41 42 41 40 37 35
40 42 43 44 49 49 49 47 47 48 49 49 49 47 44 43 42 40 38 37 37 38 38 40 41 41 40 40 41 40 39 38
42 42 42 44 47 48 48 47 46 48 48 48 47 45 42 39 37 35 36 34 35 37 40 40 38 39 40 40 39 39 38 37
42 42 43 45 46 47 46 46 45 46 45 44 43 39 38 37 38 39 38 38 39 41 41 40 38 37 38 39 39 39 39 38
42 44 45 46 47 48 48 46 44 43 43 43 42 42 40 39 40 41 40 40 36 34 34 33 33 35 37 39 39 38 37 37
43 44 46 46 46 45 47 44 42 41 40 40 38 38 38 40 41 39 35 32 30 31 32 32 32 34 35 37 36 34 34 35
44 44 45 44 42 42 42 41 39 38 37 37 38 37 36 37 33 30 30 31 30 30 31 33 33 33 35 37 36 34 35 34
42 42 41 39 38 39 39 39 38 37 36 35 32 32 31 30 28 29 32 31 32 31 31 32 33 34 37 37 37 37 33 29
39 39 38 37 37 37 36 36 34 33 30 28 29 29 28 28 29 32 32 32 31 32 32 33 33 35 34 36 36 31 29 28
38 37 37 35 34 34 32 34 31 28 24 24 26 28 30 31 32 32 33 32 33 32 33 33 36 35 32 31 28 28 29 28
37 36 36 35 33 33 33 30 26 25 23 22 25 31 33 32 32 33 33 33 33 32 32 33 34 30 25 30 29 29 28 26
36 36 34 32 32 30 27 24 24 26 24 24 27 32 31 31 32 33 32 32 32 32 31 31 31 28 32 29 28 26 24 21
36 34 32 30 29 25 22 23 26 25 24 24 29 30 29 30 30 30 31 32 32 32 32 33 32 31 28 27 25 23 22 20
35 32 29 26 24 23 24 23 24 24 23 25 27 28 28 29 30 30 31 31 32 33 33 31 30 27 25 23 23 23 22 21

GFSFLT1_sfc_dewp_045.txt.gz
Dewpoint
46 48 48 48 56 59 60 60 61 60 61 60 58 57 52 50 48 47 48 48 49 48 47 46 43 40 41 40 41 37 36 34
51 52 53 51 57 59 60 60 60 60 59 56 55 51 48 47 46 47 47 47 47 48 43 42 41 39 39 41 39 39 36 36
51 54 56 57 59 60 59 58 59 59 56 53 51 48 46 46 46 48 47 47 45 42 43 40 41 38 39 40 41 37 36 37
53 55 57 57 57 59 58 58 56 53 50 48 48 47 47 45 46 45 46 45 42 42 41 41 41 39 37 40 40 38 34 35
53 55 57 59 59 58 56 52 49 48 48 46 47 43 43 47 46 45 44 43 41 39 39 40 41 40 40 39 36 39 39 34
50 51 52 52 54 51 49 48 47 48 48 47 47 46 47 46 46 46 45 44 40 37 39 40 40 39 40 41 41 41 39 38
44 46 46 47 51 50 49 47 46 48 49 49 48 48 44 43 43 42 39 37 35 36 36 39 40 39 38 38 40 39 40 39
41 41 40 44 47 49 48 46 46 48 49 49 48 46 43 40 39 37 35 34 34 37 39 39 37 37 36 37 37 39 39 38
41 41 41 44 47 48 48 46 46 48 48 46 45 42 39 38 36 37 37 37 37 39 39 37 34 33 33 36 36 37 39 41
40 42 43 44 46 48 49 46 46 46 45 44 42 41 38 37 38 39 38 39 35 33 33 32 32 32 33 34 35 36 38 38
41 42 44 45 46 48 50 47 45 43 42 41 39 37 37 38 39 38 36 33 31 30 31 31 31 32 33 33 33 34 37 35
42 42 45 46 47 47 48 45 43 40 39 39 40 38 36 37 35 31 30 31 30 30 30 30 30 31 31 33 35 34 36 33
42 43 45 46 45 44 44 42 39 38 38 40 37 36 34 32 29 28 31 31 32 31 30 30 30 30 31 34 35 33 34 33
42 43 44 43 42 42 41 39 38 37 37 36 33 31 30 28 27 30 30 31 31 31 31 32 31 33 34 35 33 33 33 30
42 42 42 41 40 40 38 37 38 35 32 27 27 28 28 28 30 31 31 31 31 31 32 31 33 34 32 32 32 30 30 30
40 40 40 39 38 37 35 36 34 32 26 24 25 26 30 31 31 31 31 32 31 31 31 30 31 30 27 30 30 30 29 27
39 39 38 38 36 34 35 33 30 26 25 24 23 26 28 30 30 31 31 30 31 31 31 31 31 29 31 29 27 27 24 22
39 38 38 37 35 33 30 29 26 26 24 22 22 27 27 28 27 28 29 30 31 31 31 31 31 32 29 27 25 24 23 23
39 38 37 34 32 28 28 26 27 26 22 20 22 25 26 27 27 28 29 30 31 32 32 32 31 31 28 24 23 24 24 23

GFSFLT1_sfc_dewp_048.txt.gz
Dewpoint
40 43 47 54 59 60 61 61 61 60 61 61 59 57 54 52 51 51 51 51 51 52 51 48 45 45 44 43 43 43 42 40
48 50 51 53 60 60 61 60 60 60 60 57 55 54 51 51 50 51 52 50 50 48 48 45 45 44 43 42 42 41 41 40
50 52 54 56 59 60 60 60 59 59 60 56 55 52 50 50 51 51 51 50 47 47 45 45 45 43 43 43 42 42 40 41
50 52 55 60 60 60 60 59 59 59 57 54 53 52 51 49 50 50 49 48 46 44 44 45 44 43 42 43 42 41 38 39
50 53 57 58 59 59 59 59 58 55 53 51 50 47 46 48 48 48 48 47 44 43 42 42 43 44 43 42 39 42 40 38
51 55 57 57 59 60 59 57 52 51 52 51 51 51 49 50 49 50 49 49 47 42 41 42 42 43 43 42 41 40 40 38
50 55 56 57 59 58 54 50 48 51 51 52 52 51 49 48 47 48 47 47 43 42 41 43 43 42 41 40 40 39 39 39
49 50 50 51 51 52 52 49 48 50 52 52 52 50 47 45 43 43 41 41 41 42 43 42 41 39 38 38 38 38 39 38
45 46 46 48 50 50 50 48 48 50 52 51 50 49 46 43 41 42 42 41 42 42 40 38 37 37 37 37 37 38 37 39
42 43 45 46 49 51 52 49 48 50 50 50 47 45 42 41 41 42 42 42 36 38 36 36 36 36 37 37 36 37 38 38
42 42 45 46 48 49 52 51 47 48 47 47 44 43 41 43 41 41 39 36 35 35 35 35 35 35 35 36 36 37 36 37
43 42 44 46 48 49 51 50 46 45 45 44 43 40 42 39 40 36 33 33 34 34 34 34 34 34 34 34 36 35 34 34
42 43 45 45 48 48 50 50 45 43 43 42 41 42 41 38 36 32 33 33 35 34 34 34 34 34 35 36 35 35 35 35
42 43 45 46 47 47 47 46 44 40 38 40 41 41 36 34 32 32 34 34 34 34 34 35 34 35 34 34 34 34 35 32
41 42 45 46 46 45 44 43 41 39 39 38 36 35 33 32 33 34 35 35 35 34 35 34 34 32 31 32 33 32 32 31
39 43 44 44 44 44 42 40 40 39 37 34 34 33 33 34 35 35 35 36 34 34 34 34 34 31 28 30 30 30 29 28
40 41 42 42 41 41 38 38 38 38 34 32 32 30 31 34 34 35 35 34 33 34 33 33 33 29 31 29 27 26 26 25
39 40 41 42 40 38 36 36 35 31 33 32 29 29 31 33 31 31 32 33 34 34 33 33 33 33 31 27 25 24 25 25
40 41 41 40 38 36 36 31 31 33 32 27 25 28 30 31 31 31 32 33 33 33 32 33 33 32 32 28 24 23 25 25

GFSFLT1_sfc_dewp_051.txt.gz
Dewpoint
44 49 51 54 55 59 58 59 59 58 58 58 57 56 54 51 50 49 49 49 50 50 48 43 44 42 42 42 40 40 39 39
40 46 54 56 59 60 60 59 58 58 58 57 55 53 50 49 48 48 49 49 47 46 45 44 43 41 41 42 40 39 39 39
47 49 56 58 58 60 59 58 58 58 60 57 54 51 49 48 48 49 49 47 46 43 43 42 41 40 40 40 40 40 39 39
49 51 55 58 60 59 59 58 58 58 60 55 53 50 49 48 48 48 47 46 44 44 43 42 41 41 40 40 39 38 38 38
49 52 58 59 59 60 60 59 58 58 58 53 50 46 45 47 48 48 46 45 43 42 41 41 41 41 39 40 40 39 38 36
50 54 58 59 59 59 59 58 58 58 51 50 48 47 47 48 49 47 46 45 43 41 40 40 41 41 41 39 37 37 38 36
52 56 57 57 58 58 58 58 56 49 49 49 48 47 48 47 47 47 47 46 44 42 41 40 40 39 36 36 35 35 35 37
55 56 56 56 57 58 58 53 48 48 49 50 49 46 45 44 43 42 39 39 41 40 39 38 36 35 35 35 34 34 35 36
53 55 55 56 53 50 49 47 48 49 49 49 47 44 43 41 40 41 41 41 41 36 34 34 34 34 35 34 35 35 35 37
47 47 49 48 48 48 47 47 48 50 50 47 44 40 39 39 40 41 42 38 34 34 33 32 33 34 34 34 35 34 35 35
44 44 46 47 48 49 49 48 49 49 47 43 42 40 39 40 41 40 37 35 33 33 33 33 33 33 33 33 34 35 33 34
42 42 45 47 48 49 48 49 47 45 43 43 40 39 41 40 38 37 33 33 33 33 33 33 33 33 34 35 34 34 34 34
42 42 44 46 47 48 49 48 45 43 40 41 44 42 40 40 39 32 34 33 34 33 33 33 34 34 35 34 33 34 33 34
42 42 43 46 47 49 49 44 40 41 41 42 42 40 40 36 32 33 34 33 33 33 33 34 33 34 32 33 33 34 33 32
42 42 44 47 48 49 47 41 41 40 40 42 40 40 36 33 34 34 34 34 33 33 34 34 35 32 32 32 32 31 31 31
41 43 47 48 48 45 41 40 40 39 38 35 32 33 33 34 34 34 34 33 33 34 34 34 33 31 28 29 28 29 27 26
42 46 46 45 44 39 39 39 38 39 33 33 32 33 34 34 33 32 32 33 32 32 33 33 32 30 31 30 27 25 25 24
39 42 42 42 39 37 37 37 34 34 33 32 31 33 32 31 30 30 31 31 31 33 32 32 32 32 32 30 27 23 23 24
40 40 38 37 36 36 33 32 33 33 32 27 29 31 30 30 31 31 30 31 31 33 31 31 31 32 33 32 28 22 23 24

GFSFLT1_sfc_dewp_054.txt.gz
Dewpoint
49 48 51 53 54 58 56 57 57 56 56 56 55 54 53 51 50 49 49 50 50 48 44 43 42 41 42 41 38 39 38 38
47 49 51 52 57 58 57 57 56 56 56 56 55 52 51 49 48 49 49 49 49 46 44 42 41 42 41 40 39 39 38 39
48 50 51 53 58 57 57 56 56 55 57 56 54 52 49 48 48 49 49 47 45 43 42 41 40 40 40 39 39 39 38 38
48 52 53 56 58 58 57 57 56 56 58 56 52 49 48 48 48 48 46 45 45 43 42 42 40 40 39 39 38 37 37 37
50 53 56 57 58 59 58 58 57 57 59 56 50 47 46 47 47 48 46 45 44 43 42 41 41 41 40 40 39 38 36 34
51 55 57 58 59 59 59 58 58 58 58 55 50 47 47 47 48 47 46 44 43 41 41 41 40 41 38 35 34 34 36 35
50 57 58 59 59 59 59 58 58 58 57 52 50 47 47 47 48 46 46 46 43 42 40 40 39 36 34 34 34 33 33 34
54 57 58 58 58 58 58 58 57 53 51 50 49 47 47 47 47 46 44 41 41 40 39 38 36 35 35 34 33 32 32 33
54 56 57 57 57 57 58 57 52 49 49 48 47 45 45 44 43 42 42 42 39 36 35 35 34 35 34 33 33 34 35 35
55 55 56 56 56 56 55 51 48 49 49 46 44 42 41 42 43 41 40 39 35 36 34 34 34 33 33 33 34 34 34 33
52 53 54 53 52 49 48 49 48 49 46 43 41 41 41 43 44 43 39 39 36 36 34 33 33 33 34 36 35 34 33 34
48 50 51 50 48 48 47 47 48 48 44 41 41 42 42 42 42 39 36 37 35 34 34 32 33 33 36 34 33 34 34 34
45 47 48 47 47 47 48 47 48 44 40 41 43 42 44 43 40 38 38 35 36 35 33 32 33 33 35 33 32 32 33 33
43 44 46 47 47 47 48 44 40 40 42 43 43 41 43 42 40 38 38 34 33 32 32 33 33 34 32 32 33 34 33 32
42 42 44 45 47 46 43 43 43 44 43 42 42 43 43 38 36 35 34 34 32 32 33 34 35 32 31 31 31 30 30 29
44 44 47 48 48 45 43 44 43 44 41 37 40 36 35 36 36 34 34 33 32 34 34 34 33 31 29 30 29 28 27 26
42 48 48 48 45 43 43 43 41 40 33 31 33 35 35 35 34 33 32 33 33 33 33 34 32 29 32 32 29 26 25 24
45 46 47 45 43 43 41 38 34 32 32 33 35 36 34 33 31 31 31 31 31 31 33 32 32 32 33 33 31 24 23 23
39 38 37 37 37 33 33 33 34 31 30 31 31 32 32 33 34 32 31 31 31 32 32 32 31 31 33 34 33 25 23 23

GFSFLT1_sfc_dewp_057.txt.gz
Dewpoint
54 57 56 54 55 58 58 57 56 56 56 55 54 54 53 51 50 50 50 49 47 45 44 43 42 42 41 39 37 39 38 37
55 56 52 53 56 57 56 56 55 55 55 53 52 51 50 49 49 49 49 49 47 43 43 41 41 40 39 38 39 38 37 38
52 51 51 53 56 57 56 56 55 55 54 55 54 51 50 48 48 49 49 49 46 43 42 40 41 41 39 39 38 38 37 38
48 48 50 53 56 56 56 56 55 54 56 54 51 49 48 47 47 47 48 46 44 43 42 41 40 40 39 38 38 36 35 36
46 48 50 52 56 57 57 56 56 56 57 54 51 48 46 47 47 47 46 46 44 43 42 41 40 40 40 39 38 37 35 32
46 48 50 53 56 57 57 57 56 57 57 56 52 48 47 47 47 47 46 44 44 42 42 41 40 41 37 35 34 34 35 34
46 50 52 55 58 58 57 57 57 57 58 55 52 49 47 47 47 46 46 44 42 41 41 40 38 35 34 34 33 32 32 33
50 54 55 57 57 58 58 57 57 57 57 55 52 49 47 47 47 46 44 41 41 40 39 39 40 35 35 35 33 32 32 32
54 55 56 57 58 58 58 58 57 57 56 54 51 49 48 47 47 45 42 41 38 39 42 38 37 36 34 34 33 33 35 34
54 56 57 57 58 58 58 57 57 53 52 50 47 48 45 43 43 42 40 41 43 43 37 37 36 34 34 34 34 34 34 33
54 55 56 57 57 57 57 56 54 50 49 47 44 43 42 42 42 41 42 42 42 39 37 38 34 34 34 35 35 34 33 33
54 55 56 56 56 54 55 52 50 48 45 42 41 42 42 42 40 42 43 42 40 40 40 38 35 33 35 34 33 33 32 33
52 54 54 53 52 51 51 51 49 47 41 41 42 42 43 44 43 41 42 42 42 39 38 34 33 33 35 33 32 31 32 32
49 50 52 52 51 50 47 45 41 42 42 42 44 46 45 42 40 41 40 40 39 35 33 33 33 33 33 31 31 32 33 33
44 46 49 49 49 48 44 42 41 42 43 44 44 44 44 43 41 39 38 36 34 33 34 33 34 33 31 31 32 31 30 30
43 43 46 48 47 46 44 44 45 46 45 45 46 44 43 38 35 35 35 35 33 33 34 34 33 32 30 30 29 29 28 27
44 46 47 48 45 44 45 46 46 46 44 40 38 37 36 37 37 35 34 33 33 34 32 33 32 30 32 33 31 28 27 26
46 47 47 45 44 44 44 41 36 35 37 36 37 37 35 34 32 34 34 34 33 31 32 32 32 31 33 34 33 29 26 25
38 39 39 38 35 33 33 33 34 34 33 32 32 34 34 37 39 39 35 32 30 30 31 32 31 31 33 34 34 30 26 24

GFSFLT1_sfc_dewp_060.txt.gz
Dewpoint
55 57 55 56 55 57 58 57 56 55 55 55 55 54 54 54 54 52 50 49 48 46 44 43 42 41 40 39 38 39 38 38
54 57 56 55 55 57 57 56 55 56 55 53 52 52 51 51 51 50 49 48 45 44 43 41 42 40 39 38 39 38 37 38
54 55 55 54 55 57 56 56 55 56 56 53 53 51 50 49 49 49 49 47 44 43 41 41 41 40 39 39 39 38 37 37
54 54 53 53 55 56 56 56 56 56 55 54 50 49 49 47 47 48 48 48 44 42 41 41 41 40 39 38 37 36 34 35
52 52 51 51 54 56 56 56 56 55 55 53 50 50 48 47 48 47 47 46 44 42 41 41 40 41 39 38 37 37 33 31
48 50 50 51 54 55 56 56 56 55 55 54 52 50 50 49 47 47 46 45 44 42 41 41 41 40 38 37 36 36 35 33
44 47 48 51 55 55 56 56 56 56 56 55 53 53 50 48 47 47 45 43 42 41 41 40 37 37 37 36 34 34 33 33
41 46 49 53 55 56 56 56 56 56 56 56 55 53 51 48 46 46 44 41 41 40 37 40 41 40 39 36 34 33 33 33
41 46 50 54 55 56 57 57 57 57 57 57 56 54 49 47 47 47 43 41 39 40 43 42 41 40 37 36 36 34 35 34
43 48 53 55 56 56 57 57 57 57 57 56 54 52 50 47 45 43 41 40 42 43 40 40 41 38 37 38 34 33 34 33
49 52 55 56 56 57 58 57 57 57 56 54 53 50 47 45 44 42 40 43 43 41 42 41 39 38 37 35 34 34 33 33
51 53 55 56 56 57 57 57 57 53 52 50 47 44 43 43 42 42 43 43 42 43 40 41 38 37 34 35 34 34 33 33
51 53 54 55 55 55 55 55 54 51 44 43 43 42 42 43 43 44 44 42 44 41 42 39 37 35 34 34 33 32 32 31
51 52 53 54 55 53 52 51 49 46 44 43 44 44 43 43 44 43 43 43 42 40 39 38 36 34 33 34 33 32 32 33
47 49 51 51 51 49 47 45 47 46 45 46 45 45 44 43 43 42 41 40 39 38 37 36 35 34 33 33 32 32 32 31
45 45 48 48 48 46 45 44 45 46 46 45 45 46 45 43 39 40 41 40 37 35 35 35 34 33 32 32 31 30 29 28
45 43 46 48 46 46 45 45 45 45 44 44 44 43 40 39 39 39 37 34 34 36 35 34 34 32 33 34 31 29 28 28
45 46 45 45 44 45 44 43 42 41 39 39 39 38 36 36 35 36 38 39 38 36 34 33 32 32 33 34 34 30 28 28
38 39 37 36 35 35 35 36 36 36 34 33 33 34 37 39 39 40 40 37 33 31 31 30 31 31 33 34 34 32 30 28

GFSFLT1_sfc_dewp_063.txt.gz
Dewpoint
53 55 56 57 59 59 60 61 62 61 61 60 61 61 61 61 61 59 57 54 52 49 46 47 45 43 43 42 43 42 41 40
54 55 56 55 58 59 60 60 60 59 58 58 58 59 59 58 58 56 54 51 51 49 46 45 45 43 43 44 43 42 40 42
54 55 57 56 56 58 59 59 58 58 58 58 58 58 56 56 55 55 53 51 49 48 46 44 45 43 44 44 44 41 41 41
54 54 56 56 56 57 58 58 58 58 58 57 54 53 53 53 54 52 50 49 47 46 46 45 45 44 43 44 43 41 38 39
54 54 55 56 56 58 58 58 58 58 58 57 56 55 53 54 53 50 49 49 46 45 45 46 45 44 44 43 41 41 38 32
53 54 55 56 57 58 59 58 58 58 58 58 57 56 56 54 52 50 49 49 47 44 45 45 45 44 44 43 41 40 39 38
52 53 54 54 57 58 59 58 57 57 57 57 56 55 53 52 52 49 48 48 46 45 43 44 45 43 41 40 40 39 39 37
49 49 51 52 54 57 58 57 57 57 57 57 56 55 54 53 52 50 48 46 45 44 44 43 42 42 42 41 39 37 38 36
47 47 49 52 54 55 57 57 57 57 57 57 57 55 55 53 50 50 49 46 44 44 43 42 43 43 41 41 38 39 38 38
43 45 49 51 53 55 57 57 56 57 57 58 58 57 56 53 51 51 49 47 44 43 43 44 43 43 41 40 39 38 38 39
41 43 48 51 53 54 57 57 56 57 57 58 58 57 56 54 52 50 48 45 43 44 43 43 44 41 41 40 37 37 37 37
45 47 50 53 55 55 57 57 57 57 58 58 57 57 55 52 51 49 46 45 44 42 44 44 41 41 39 38 37 37 36 36
48 51 54 55 56 56 57 57 57 58 58 57 56 53 50 49 47 45 46 44 45 45 42 41 41 39 39 37 36 35 36 35
50 52 53 55 56 57 57 56 57 55 52 50 49 47 46 46 46 46 46 44 44 43 42 40 41 41 37 36 36 36 35 34
48 51 53 54 55 55 55 54 52 48 48 48 47 46 46 46 46 45 45 44 41 41 43 42 40 37 35 35 35 35 35 34
46 48 52 52 52 50 49 49 49 48 47 46 46 46 46 45 44 43 43 43 43 42 39 37 37 37 34 35 34 35 34 34
45 45 49 50 48 47 46 47 47 47 46 46 45 44 43 42 43 42 41 38 37 37 38 37 37 35 34 34 34 34 33 32
44 45 46 47 46 46 46 45 45 44 44 43 41 41 40 39 37 37 39 41 41 41 40 38 36 35 35 35 35 33 32 32
41 41 41 41 41 41 42 40 40 39 37 36 36 37 39 40 41 41 42 41 40 37 35 34 33 31 33 34 34 34 34 33

GFSFLT1_sfc_dewp_066.txt.gz
Dewpoint
53 54 53 52 55 55 57 58 61 62 63 60 56 56 56 60 62 63 62 61 59 56 52 51 48 47 46 43 43 41 41 42
53 54 55 53 55 55 57 58 60 61 60 56 54 55 58 60 62 62 61 59 58 56 51 50 49 47 45 47 44 44 42 43
50 52 54 56 56 57 57 58 60 61 58 56 54 55 56 59 61 61 60 58 56 53 52 50 49 46 47 46 45 42 42 42
52 51 53 55 55 57 57 58 59 60 58 55 55 57 58 58 60 60 59 56 54 52 51 50 49 46 45 46 46 44 41 41
50 52 53 55 55 55 57 58 59 60 59 56 55 54 54 56 59 58 55 54 52 49 50 50 49 46 46 46 44 44 41 39
49 50 52 53 55 56 56 57 58 60 60 59 57 57 56 58 58 57 55 53 51 48 49 49 48 47 48 46 46 43 41 39
49 50 51 52 57 58 58 57 57 59 61 61 60 59 59 58 57 56 54 53 48 48 46 48 48 47 47 45 44 42 43 38
50 49 51 51 54 58 58 58 56 59 60 60 61 60 60 58 57 55 53 52 50 49 49 48 47 47 46 43 43 42 41 39
47 50 51 52 53 56 58 57 57 58 59 60 60 60 59 59 56 55 53 51 52 51 49 48 47 45 44 43 43 41 41 40
44 47 51 52 54 55 57 56 56 57 59 60 59 59 58 57 57 55 53 53 51 50 49 47 46 45 44 44 43 40 40 40
40 42 47 50 52 54 57 56 55 55 58 59 59 59 59 58 57 54 53 54 51 49 48 46 44 45 44 41 41 40 40 39
43 42 43 47 50 53 54 55 54 55 56 58 59 58 58 58 57 55 54 53 49 47 46 45 46 43 43 42 39 39 37 36
45 46 47 48 50 51 52 54 54 55 56 57 58 58 57 54 53 51 50 48 46 45 46 44 44 41 41 41 41 37 36 34
46 49 50 51 52 53 53 55 56 57 57 57 53 51 50 49 47 47 46 45 45 45 44 42 42 42 43 42 39 36 35 34
43 47 50 53 54 56 57 56 56 53 53 50 49 48 48 47 47 47 46 46 44 43 43 42 44 43 40 38 35 35 35 34
39 47 51 53 55 55 55 53 50 50 49 48 48 48 47 46 46 44 44 43 43 43 43 43 42 38 35 37 36 36 34 34
42 46 51 52 52 52 52 52 50 49 48 47 46 46 45 45 43 43 43 41 39 40 39 39 38 36 37 36 35 36 33 32
46 48 49 49 49 50 49 49 49 48 46 45 45 45 43 41 39 37 38 39 40 40 41 41 40 38 36 36 35 34 33 32
44 46 46 47 47 46 47 45 45 45 43 43 42 40 38 39 41 41 42 41 41 40 37 34 34 30 34 34 34 34 32 32

GFSFLT1_sfc_dewp_069.txt.gz
Dewpoint
50 51 51 48 52 52 53 57 60 61 62 59 55 54 53 54 57 59 62 62 61 60 57 55 53 50 50 48 47 43 42 41
51 51 51 49 52 51 53 56 59 60 58 55 52 50 51 53 58 61 62 61 61 60 56 54 53 51 51 49 46 46 43 44
51 52 51 52 53 54 53 53 56 57 55 53 50 50 50 52 60 62 62 61 60 58 56 54 53 51 51 50 47 44 45 44
48 50 53 52 52 54 53 54 54 56 55 53 52 52 52 53 58 60 60 60 59 58 56 54 54 52 50 49 48 47 44 44
47 48 50 53 54 55 55 55 54 56 58 54 54 50 50 52 56 59 58 59 58 56 55 54 55 53 51 49 47 48 47 44
46 48 48 50 53 55 56 55 55 55 59 57 54 54 53 54 57 59 60 58 57 56 54 54 55 52 52 52 50 48 45 44
43 45 48 49 56 57 55 55 55 56 58 59 58 57 56 53 59 58 58 57 56 55 54 54 54 51 51 50 49 48 46 44
45 43 44 47 51 55 56 55 54 56 58 59 60 59 58 58 59 57 58 56 55 55 54 53 53 51 51 49 49 46 45 44
44 45 46 46 49 53 56 55 55 54 57 60 61 60 59 61 60 59 58 56 56 54 53 53 53 52 51 50 45 46 44 44
38 44 47 49 50 53 58 56 55 55 57 60 60 61 60 60 61 59 58 57 55 55 53 52 52 50 48 46 45 44 44 44
40 40 45 48 50 52 57 56 54 54 57 59 59 60 60 60 59 58 57 56 54 54 54 53 50 46 46 45 44 44 42 43
39 40 43 47 50 52 55 56 55 53 55 59 60 59 59 59 59 58 57 56 55 53 50 47 45 45 44 44 42 41 41 41
40 42 42 44 47 50 53 55 55 54 54 56 59 59 59 59 58 54 52 47 47 46 46 45 44 44 43 41 41 42 41 41
38 43 45 46 48 50 51 53 54 53 54 58 57 55 53 51 49 47 46 46 46 46 45 44 43 42 42 42 43 41 40 39
35 41 45 49 51 51 52 56 57 57 55 54 52 50 49 48 47 47 47 47 46 45 44 43 43 43 43 42 41 41 40 37
33 39 45 50 53 55 56 53 53 52 50 50 49 48 48 48 46 46 45 45 44 43 43 43 44 43 41 40 38 38 38 37
34 39 48 51 54 55 52 51 50 50 49 49 48 47 46 46 45 45 44 43 43 43 42 42 41 38 37 37 37 37 35 34
42 46 51 52 52 52 51 50 49 48 47 47 47 46 45 43 42 41 40 40 41 41 40 40 40 40 39 37 35 32 32 31
47 48 49 50 51 50 50 48 47 46 45 45 44 43 40 39 39 39 40 41 41 42 41 37 34 31 34 33 33 31 29 29

GFSFLT1_sfc_dewp_072.txt.gz
Dewpoint
54 54 54 54 55 55 55 54 55 56 56 59 58 56 55 55 59 60 62 62 62 61 58 58 56 55 53 51 50 48 46 45
50 51 55 54 55 54 53 53 55 58 58 57 55 55 55 56 57 60 62 62 62 61 60 58 56 54 52 53 50 47 45 45
49 49 51 52 53 52 53 54 58 59 59 57 55 53 54 53 57 61 62 62 62 61 60 56 55 54 55 51 49 47 48 48
49 50 49 51 52 52 52 55 58 58 58 55 54 53 54 53 60 61 62 62 61 60 60 57 56 56 54 52 51 49 47 47
49 50 51 51 51 53 54 54 56 57 57 54 53 51 50 53 59 60 61 61 60 59 59 58 57 56 54 52 51 49 49 46
49 49 51 52 53 55 56 55 54 54 56 57 55 54 53 54 55 60 60 60 60 58 58 57 57 56 55 52 50 50 50 44
46 48 50 52 55 56 57 56 55 56 58 57 59 56 56 55 60 59 59 59 59 59 57 57 56 55 53 53 51 51 45 44
47 47 47 48 52 55 57 56 55 56 59 58 59 59 57 57 59 58 59 58 57 57 56 56 56 55 53 53 52 49 44 42
44 44 49 49 51 55 56 55 55 56 58 59 60 59 59 58 59 59 58 58 56 56 56 55 54 54 53 53 49 47 45 45
42 45 46 49 51 54 56 55 55 55 57 59 60 60 60 60 61 61 60 58 57 56 55 54 53 53 50 48 47 45 45 44
41 42 48 47 49 53 57 56 55 55 56 58 59 60 61 61 62 60 59 58 56 56 53 53 49 48 47 46 45 44 44 44
41 43 45 49 50 52 55 57 56 56 56 58 60 61 61 60 59 59 58 57 55 53 49 47 46 45 44 44 43 43 42 42
41 43 44 45 51 53 54 56 56 56 56 59 60 60 59 59 58 56 54 53 50 48 46 45 44 44 44 43 42 42 41 41
38 43 44 45 47 51 53 57 57 57 57 59 58 57 53 51 49 49 49 48 46 46 45 45 44 43 43 42 42 42 43 42
34 41 44 47 49 51 53 57 57 57 57 55 53 51 50 49 48 49 48 47 46 45 45 44 43 42 42 42 42 43 42 41
31 35 46 49 53 57 56 55 54 53 52 50 49 49 47 47 48 47 47 46 45 44 43 43 43 43 43 43 41 41 40 40
35 37 47 52 56 53 52 51 51 50 49 48 48 47 47 46 46 45 45 44 43 42 42 43 43 41 39 38 36 38 37 36
42 42 53 55 53 52 50 49 49 48 47 47 47 46 46 46 44 44 43 43 42 42 41 42 41 40 38 38 35 33 32 32
45 51 53 53 52 50 49 48 47 47 47 46 46 44 43 42 41 40 40 40 40 41 42 42 41 34 35 34 33 31 31 32

GFSFLT1_sfc_dewp_078.txt.gz
Dewpoint
54 54 54 54 54 54 54 54 53 53 54 54 51 53 52 51 53 55 56 58 58 58 57 55 54 53 52 50 48 48 44 42
53 53 53 53 54 53 52 52 52 53 53 50 48 47 52 52 52 54 57 57 59 58 57 54 54 52 51 50 49 47 45 43
53 53 52 52 53 53 51 50 51 51 51 49 48 51 54 53 53 54 57 58 59 58 56 55 55 53 51 51 49 46 45 45
52 52 52 52 51 53 52 50 50 51 51 50 54 54 54 53 53 54 57 59 60 59 58 57 56 54 52 50 49 46 44 45
52 52 52 52 53 53 53 51 50 51 52 51 51 51 49 51 51 53 58 59 59 60 59 58 56 55 53 51 49 47 46 45
52 52 52 52 53 53 52 51 51 50 52 51 52 53 53 53 53 54 58 59 59 60 60 59 57 55 54 54 52 50 50 49
51 52 51 51 52 52 51 50 50 51 51 53 55 55 54 52 52 54 56 58 59 60 60 59 58 56 55 54 52 51 51 49
51 51 51 50 50 50 50 50 50 51 53 55 56 57 55 52 52 53 55 57 58 59 60 59 58 56 55 55 53 53 51 49
48 50 50 47 47 48 49 49 49 51 52 57 58 57 56 54 52 55 56 57 58 59 59 59 56 55 54 54 51 48 48 48
48 48 49 50 45 47 49 49 50 51 52 56 57 58 55 54 53 54 58 58 58 58 58 56 55 53 52 50 49 48 48 47
47 49 49 50 50 49 51 50 50 51 53 55 56 57 57 55 56 56 57 58 57 57 56 55 54 52 50 49 48 47 46 46
46 47 49 50 50 51 52 52 52 54 55 56 56 56 57 57 56 57 56 56 57 56 55 54 52 51 49 47 47 46 45 44
45 47 47 49 51 52 52 53 54 55 56 56 57 58 57 57 58 57 57 56 56 56 53 53 51 49 47 45 44 44 44 44
37 41 45 47 49 50 52 54 55 56 56 56 56 56 58 58 58 57 58 57 53 52 51 49 47 46 45 45 44 44 44 43
38 39 44 48 50 50 52 54 56 56 55 55 54 54 54 54 54 54 53 53 50 49 48 46 45 44 44 44 44 43 42 42
35 40 47 54 53 53 54 53 53 53 52 52 50 50 50 50 50 49 49 48 47 47 46 45 44 44 43 43 43 42 42 42
36 39 53 54 53 51 52 51 51 51 50 48 48 48 48 47 47 47 46 46 45 44 44 43 42 42 40 40 42 41 38 34
44 48 52 53 51 51 50 50 50 49 49 49 49 48 46 46 46 46 45 44 44 43 43 43 42 42 40 39 36 34 30 30
52 53 51 50 50 50 49 49 49 48 48 48 47 47 45 45 44 44 43 43 43 42 42 42 40 37 37 35 33 30 28 28

GFSFLT1_sfc_dewp_081.txt.gz
Dewpoint
54 55 55 55 56 56 56 56 55 55 55 54 52 52 52 54 56 56 58 57 57 56 55 54 54 53 52 50 48 47 44 41
53 54 54 54 54 54 55 54 53 54 54 53 53 53 51 51 53 55 58 58 58 57 56 55 54 53 52 50 48 46 44 42
53 52 54 54 54 53 52 52 52 52 52 50 51 51 53 52 52 54 55 56 58 57 56 54 54 52 51 50 48 47 46 44
50 51 51 52 52 52 51 52 52 51 51 50 52 51 52 52 52 52 55 56 58 58 56 55 54 53 51 50 49 47 45 45
51 50 50 50 51 52 51 50 51 52 51 49 49 47 45 45 47 50 53 56 58 58 58 56 55 54 52 51 52 49 49 44
51 52 51 51 52 51 52 51 50 50 51 50 50 48 47 48 51 52 52 54 57 58 58 57 56 55 54 53 51 50 50 49
51 52 52 52 52 53 52 51 50 50 51 51 50 50 50 51 52 52 52 53 56 58 58 58 58 57 55 54 54 51 50 50
51 51 51 51 51 52 52 51 50 50 50 51 50 51 52 52 52 52 52 54 56 58 58 58 58 58 56 54 54 53 51 50
51 51 51 50 51 51 51 50 49 50 50 50 51 52 53 54 53 53 53 54 55 56 59 59 58 58 56 56 54 51 49 49
50 51 51 50 50 50 50 49 49 49 50 50 51 52 53 54 56 54 54 54 56 56 58 58 57 56 55 54 52 50 49 49
49 49 51 51 50 50 50 49 48 48 49 50 50 54 56 57 57 55 54 56 57 56 56 55 54 54 53 52 51 50 49 48
48 48 49 51 51 49 50 50 49 50 50 51 52 53 56 58 57 56 55 57 57 57 56 54 54 53 52 51 50 48 47 46
46 48 49 49 50 50 48 49 50 51 53 53 53 55 56 57 57 56 57 56 56 57 56 55 53 52 50 49 47 47 46 45
45 46 47 49 50 50 51 50 51 52 52 52 56 57 57 57 57 56 56 57 57 57 56 53 51 49 48 48 47 46 45 45
41 45 46 47 49 50 51 51 52 53 53 54 55 56 56 57 56 57 57 57 57 56 54 52 50 48 48 46 45 45 44 44
37 39 41 45 48 49 51 52 53 54 54 54 55 53 53 53 53 52 52 52 52 52 49 47 46 46 46 46 44 44 43 43
37 39 41 51 51 51 51 51 52 51 53 50 50 50 50 50 49 49 49 48 48 47 46 45 44 45 42 41 42 43 42 40
34 39 43 51 50 52 52 51 51 50 49 49 49 49 48 48 47 46 45 45 45 44 44 43 43 43 40 40 38 35 32 31
40 48 50 50 51 50 50 50 50 50 49 49 49 48 47 46 45 45 44 44 43 44 44 43 43 41 38 35 33 30 29 27

GFSFLT1_sfc_dewp_084.txt.gz
Dewpoint
54 55 55 56 56 57 56 56 56 56 55 55 57 56 56 58 57 56 56 55 54 54 53 53 52 52 51 49 48 47 43 41
54 54 55 55 55 56 55 54 55 55 55 55 55 54 54 56 56 56 56 56 55 54 54 54 53 51 51 50 48 46 45 42
51 53 54 54 54 55 54 53 54 55 55 56 56 53 52 53 55 57 57 57 56 56 55 54 54 52 51 50 49 47 46 43
50 51 53 54 53 53 53 52 52 53 55 52 51 51 52 53 53 54 56 57 58 57 56 55 54 53 52 51 49 47 46 45
50 51 50 52 52 52 52 52 51 52 52 51 49 50 49 49 50 51 53 55 56 57 56 56 54 54 52 52 51 49 48 46
50 50 51 51 51 52 52 52 51 51 51 51 49 49 50 46 48 49 51 54 55 56 56 55 55 54 54 52 51 49 49 48
51 51 51 51 51 51 52 51 51 51 51 50 49 49 48 48 48 50 51 52 54 55 57 57 56 55 54 53 52 51 51 50
50 51 51 51 51 50 51 51 51 51 51 51 50 50 49 48 48 49 49 51 52 54 56 56 57 57 56 56 54 53 51 50
50 51 51 51 51 51 51 51 51 51 50 51 51 50 50 50 50 50 51 51 52 54 56 58 58 58 58 56 55 54 54 52
50 51 51 51 51 51 52 51 51 50 50 50 50 51 50 50 51 52 53 53 54 54 55 56 56 56 56 56 56 54 53 53
50 51 51 51 51 51 52 51 50 49 49 49 49 50 51 52 53 54 54 54 53 55 56 56 56 55 55 55 54 53 51 51
49 50 51 51 51 51 51 51 50 49 49 50 49 49 51 52 52 54 55 55 55 56 56 56 56 55 54 54 53 52 51 50
48 49 50 51 51 50 50 50 50 50 50 50 50 51 51 52 54 55 56 55 55 56 56 56 56 56 54 52 51 50 50 47
46 47 49 49 51 51 49 49 50 50 50 50 51 51 52 53 54 56 57 56 56 56 57 56 57 54 51 51 50 48 48 49
45 45 47 49 49 50 51 49 49 50 50 50 50 52 53 54 55 55 55 55 55 56 57 57 55 52 51 49 48 47 47 46
40 44 46 47 48 50 50 51 51 50 50 50 51 52 53 53 53 53 54 55 56 56 54 52 51 50 49 48 47 46 46 45
34 38 43 45 47 48 50 50 51 52 52 51 51 52 52 52 51 51 50 50 49 49 48 47 46 47 43 42 44 45 44 42
30 36 38 42 49 49 50 51 52 51 51 51 50 50 49 49 49 49 47 47 46 45 45 45 44 43 40 41 40 42 37 35
32 36 48 49 49 50 51 51 51 50 49 49 49 49 48 47 47 46 44 45 44 44 44 44 43 40 37 36 34 31 30 29

GFSFLT1_sfc_dewp_087.txt.gz
Dewpoint
54 54 56 56 57 57 57 57 57 57 58 58 59 59 60 59 59 58 57 56 56 56 53 53 53 52 51 49 47 47 44 42
53 55 56 56 57 56 56 56 56 56 57 57 56 56 58 57 57 57 57 56 55 56 54 53 53 53 52 52 50 49 46 45
52 54 55 55 56 56 55 55 55 56 56 57 56 56 56 56 57 57 57 56 56 56 55 53 53 53 54 53 52 50 49 46
50 51 54 54 55 55 54 54 55 56 56 56 55 54 54 55 56 57 57 57 56 55 55 55 56 54 53 54 54 52 50 48
49 50 52 53 54 54 54 54 54 55 56 55 54 51 52 53 54 55 56 57 56 55 55 56 56 55 55 55 54 54 53 50
49 50 51 51 53 53 54 53 53 54 56 55 54 52 52 54 54 54 56 57 58 57 57 58 58 58 58 57 56 55 54 54
49 51 51 51 52 53 53 53 53 53 54 54 53 54 53 51 53 52 53 54 56 57 58 59 59 58 58 58 57 57 56 55
50 49 51 51 51 52 52 52 52 53 52 53 53 52 52 51 51 51 51 52 54 55 57 58 58 58 58 59 58 57 57 56
50 49 51 51 51 51 51 52 52 53 53 53 53 53 51 51 51 51 51 51 52 54 56 56 57 58 58 59 60 59 58 58
49 50 51 51 51 51 51 51 51 53 53 53 53 53 52 52 52 52 53 54 54 55 56 56 57 58 59 59 60 59 59 58
49 50 51 52 52 52 52 52 52 53 53 53 53 53 53 53 54 54 54 54 54 55 56 56 57 58 59 59 59 58 57 56
49 50 51 52 52 52 53 54 53 52 52 53 53 53 54 54 54 55 55 56 55 55 55 56 57 57 56 56 56 57 55 54
49 51 51 52 52 52 52 53 53 52 52 52 52 53 54 54 54 54 56 56 56 56 56 56 56 56 56 56 56 55 54 54
48 49 51 51 52 52 51 52 52 52 52 52 53 53 52 53 53 53 54 54 55 56 56 56 56 56 56 56 56 54 53 53
46 48 49 51 52 52 51 52 52 52 52 51 52 53 53 52 52 54 55 56 56 57 57 58 57 57 56 56 53 53 52 50
38 45 48 49 50 52 52 52 52 52 51 52 52 53 53 53 54 55 56 57 57 58 58 58 57 56 54 52 51 50 49 48
31 39 45 48 50 51 52 52 51 51 51 52 52 52 52 54 55 56 57 57 57 57 56 55 52 51 44 43 47 47 47 42
33 33 39 45 48 50 51 52 52 51 51 51 52 53 53 54 54 53 53 53 50 49 48 47 46 45 40 41 41 43 39 37
34 34 40 47 49 50 52 52 53 52 52 52 52 52 51 50 50 49 47 46 46 45 45 44 41 38 37 36 36 35 34 32

GFSFLT1_sfc_dewp_090.txt.gz
Dewpoint
52 53 55 56 57 58 58 58 58 58 60 59 60 59 60 60 60 57 57 56 57 55 54 55 53 51 50 48 49 47 45 44
51 53 55 56 57 57 57 58 57 57 58 57 57 57 58 59 59 57 56 55 56 56 54 55 54 52 53 53 50 50 47 46
51 52 55 55 56 56 57 57 56 56 57 58 57 58 58 58 58 58 56 56 55 56 55 53 54 53 54 54 52 50 49 47
50 51 53 54 56 56 56 56 56 56 57 57 57 57 57 56 57 58 57 55 55 55 55 54 55 54 54 55 54 54 51 51
48 51 52 54 56 56 56 56 56 56 57 55 56 54 54 54 54 55 57 57 56 54 54 55 56 55 55 55 54 55 54 52
48 50 51 52 54 56 56 56 56 56 56 55 54 53 54 54 55 54 55 57 57 55 55 56 56 55 55 56 56 56 55 54
47 49 50 51 54 54 56 55 55 56 56 56 54 53 53 53 53 55 55 53 53 56 53 55 56 55 56 57 58 58 57 56
48 48 49 50 52 53 54 54 54 55 56 56 55 55 53 54 53 53 54 53 54 54 55 56 56 58 59 60 59 59 59 59
48 48 50 50 52 53 53 52 52 54 55 56 56 56 52 52 54 53 53 53 54 56 57 57 58 59 59 59 58 57 58 58
47 49 50 51 51 53 54 53 53 53 54 55 55 55 54 53 53 55 54 54 53 56 56 56 56 56 56 56 56 57 58 59
45 48 50 51 51 51 54 53 52 53 54 55 54 55 54 54 54 53 54 54 53 53 54 55 54 54 55 56 57 58 59 60
46 47 50 51 52 51 53 53 52 52 53 54 55 54 54 54 54 55 54 54 53 54 54 55 55 54 55 56 57 58 58 57
46 47 49 51 52 52 52 53 53 53 53 54 54 55 55 55 54 55 56 55 56 54 54 53 53 54 56 57 57 56 56 55
45 48 48 50 51 52 52 52 52 53 52 53 55 56 56 56 56 56 55 55 55 55 55 55 55 56 54 57 56 55 55 57
43 46 48 50 51 52 52 52 53 52 52 52 53 54 55 55 55 56 56 56 55 54 54 54 55 54 54 55 56 56 56 56
39 43 46 48 50 52 52 52 53 53 52 52 52 54 53 53 53 54 54 54 53 53 54 55 56 56 57 58 57 56 55 53
32 35 42 47 49 51 52 52 53 54 53 52 52 52 52 53 53 54 54 54 54 55 55 56 57 56 43 44 48 53 49 44
32 33 36 43 48 50 51 52 53 53 53 52 52 53 52 53 53 53 54 55 56 54 50 48 46 43 39 40 40 41 39 37
32 34 36 39 45 49 51 52 52 52 52 52 52 52 52 53 54 54 51 49 47 46 43 41 38 36 36 36 35 34 33 32

GFSFLT1_sfc_dewp_093.txt.gz
Dewpoint
52 52 54 55 57 59 58 58 59 59 60 60 60 61 61 61 60 59 57 57 57 56 53 53 52 50 52 53 54 54 48 47
51 52 54 55 57 58 58 57 58 59 59 58 57 57 59 59 58 57 56 55 55 57 54 52 53 52 53 55 55 54 51 48
50 53 54 55 56 57 57 57 57 58 58 58 58 57 58 58 58 58 57 56 55 55 55 55 55 55 55 55 55 53 51 50
49 51 53 54 55 57 57 57 57 57 58 58 58 58 58 57 57 57 56 56 55 55 56 56 56 56 56 57 56 55 52 52
47 50 52 55 56 56 56 57 56 57 58 57 56 54 54 55 56 57 57 56 55 55 56 56 57 57 57 57 56 56 57 52
46 49 50 53 55 55 57 56 56 57 56 57 56 54 54 55 56 57 57 53 53 52 54 57 57 57 58 58 58 59 57 56
46 48 48 51 55 55 56 56 56 57 57 57 56 55 54 54 54 54 56 54 52 53 55 57 58 57 57 58 59 59 58 57
46 47 47 50 54 54 54 55 55 56 57 57 56 55 56 54 54 53 54 54 55 55 56 57 57 58 58 58 59 59 60 59
46 47 48 49 53 54 55 53 53 56 56 56 56 55 54 54 54 53 52 53 52 53 55 54 56 58 58 59 60 61 61 61
45 46 49 48 51 53 54 53 53 55 56 57 56 56 54 53 55 56 54 53 51 53 54 56 56 57 58 59 60 60 59 60
44 45 50 50 50 52 55 53 52 54 55 57 56 56 57 56 55 55 56 55 55 55 56 57 58 58 59 59 58 58 58 59
43 45 48 50 51 51 53 53 51 53 54 55 56 56 56 56 56 56 56 57 55 55 57 57 57 57 58 58 58 58 57 58
42 43 47 49 51 50 51 52 52 52 53 54 55 56 57 57 56 56 57 57 57 56 56 55 55 56 57 56 56 56 56 56
42 43 44 48 50 51 51 52 51 51 52 53 56 57 57 57 57 57 57 56 55 55 55 55 55 56 55 56 56 57 57 57
38 42 44 46 49 51 51 52 52 51 51 52 55 55 56 56 57 57 58 57 56 55 56 56 56 55 54 55 54 56 57 57
31 39 44 46 48 50 51 52 53 52 51 52 53 55 55 55 56 57 56 57 55 55 55 55 55 54 53 55 55 55 57 57
31 33 39 44 46 49 50 52 53 55 53 53 52 54 53 55 56 56 56 55 55 54 53 53 54 49 40 43 48 51 46 43
30 32 34 38 44 47 49 51 53 53 53 52 52 52 52 54 53 53 53 54 55 52 48 45 42 41 39 39 39 39 37 35
32 33 33 34 38 44 49 50 52 53 53 52 52 53 52 52 53 53 53 50 47 43 40 38 36 35 36 36 35 33 32 32

GFSFLT1_sfc_dewp_096.txt.gz
Dewpoint
51 52 54 55 57 58 59 59 60 60 60 61 61 62 62 62 61 61 61 59 59 58 58 58 58 56 56 55 53 53 51 50
52 53 54 55 57 58 58 58 59 59 58 58 59 59 61 61 61 60 60 58 56 55 55 55 54 54 54 55 54 51 51 50
51 53 54 55 56 57 58 57 58 58 58 58 58 59 59 59 58 58 58 56 56 54 53 53 54 54 54 54 53 52 51 50
50 53 53 55 55 57 57 57 58 58 59 58 57 58 58 57 57 57 57 56 56 55 55 54 55 55 54 55 54 53 51 52
50 51 53 55 55 56 56 57 57 57 58 57 56 55 54 55 55 56 57 57 57 56 57 57 56 57 56 56 55 55 54 51
49 50 52 54 56 57 56 56 57 58 57 57 55 54 54 54 54 54 56 56 56 56 57 58 57 57 58 58 56 56 56 56
48 50 51 53 56 56 57 56 56 57 57 57 55 54 54 53 52 52 53 54 55 55 55 57 57 56 58 57 57 57 57 57
47 48 48 52 55 54 56 56 55 57 57 57 56 55 55 53 53 52 53 52 53 53 52 53 56 57 56 56 56 57 57 57
46 48 48 51 55 54 54 55 55 56 57 57 56 55 54 54 54 53 54 52 51 51 52 51 56 56 57 57 59 58 58 59
45 48 49 50 54 55 55 55 55 54 57 57 56 56 55 54 54 53 54 54 53 53 52 53 55 55 56 58 58 58 58 58
45 47 50 50 53 54 56 54 54 55 55 56 56 55 55 55 54 53 53 53 53 53 54 53 54 54 57 57 57 57 57 57
44 46 50 49 52 53 55 54 53 54 55 56 56 55 55 54 55 54 54 53 53 53 53 53 53 54 54 55 56 56 56 56
43 45 50 50 51 52 53 54 53 54 55 56 56 56 56 55 55 55 55 55 54 52 52 54 53 53 55 56 56 56 56 55
43 44 47 50 51 51 52 53 53 53 54 55 56 56 56 56 56 55 56 55 55 55 53 54 55 55 55 55 55 55 55 55
40 43 44 49 51 51 51 53 53 52 54 54 55 56 56 55 56 56 56 56 56 56 55 55 55 55 54 54 54 54 55 55
31 39 44 46 50 52 52 52 53 52 52 53 55 56 56 57 56 56 56 56 55 55 55 55 55 55 53 53 55 55 54 44
26 30 38 45 47 51 52 53 53 52 52 52 54 55 55 56 56 56 56 56 56 56 56 55 52 45 39 41 47 44 41 38
26 33 36 43 48 50 51 53 54 53 52 52 52 54 55 55 56 56 56 56 55 52 45 42 39 38 37 37 37 36 35 34
43 40 38 39 41 48 51 52 53 54 53 53 53 53 54 54 55 55 51 47 43 39 37 36 35 35 35 35 34 32 31 31

GFSFLT1_sfc_dewp_099.txt.gz
Dewpoint
52 53 56 57 57 58 58 58 58 60 59 59 59 60 61 61 62 62 61 60 59 58 57 58 57 55 56 54 51 51 50 49
52 54 56 56 57 58 57 58 59 58 58 58 58 59 61 60 61 61 61 60 57 57 58 57 57 55 54 53 51 49 49 49
52 54 55 55 57 57 57 58 58 58 58 58 59 60 61 60 60 61 60 58 56 55 56 54 56 54 53 51 51 50 49 48
52 52 54 55 56 57 57 57 57 58 58 58 58 58 59 59 60 59 58 57 55 53 55 56 55 54 52 51 51 49 48 49
52 52 54 54 55 56 57 57 58 58 57 57 57 56 55 57 58 59 57 57 56 55 55 54 54 54 54 52 52 52 51 48
51 52 53 54 55 55 56 57 57 57 56 56 56 56 56 57 56 56 57 57 57 56 56 56 55 55 56 56 55 54 54 52
51 52 53 54 55 55 56 57 57 57 57 56 55 55 54 54 55 55 55 55 56 56 56 56 56 56 57 57 57 56 55 55
49 51 52 54 55 55 56 56 57 57 57 56 54 54 53 53 53 54 54 54 55 55 54 55 55 56 57 57 57 57 56 55
48 51 52 54 55 55 55 55 56 57 57 56 55 54 53 53 53 52 52 53 53 54 53 53 55 57 56 57 57 57 57 57
47 49 52 53 54 55 54 53 54 56 57 57 55 55 53 53 51 51 50 51 52 54 53 52 54 55 56 57 57 57 56 56
47 47 51 54 54 53 54 54 53 55 56 57 55 54 54 53 53 52 52 51 51 52 52 52 53 55 56 56 56 57 56 56
47 47 49 53 54 54 54 54 54 53 54 56 56 55 54 54 53 53 54 53 52 52 52 52 52 53 54 55 55 55 55 55
46 48 48 52 53 54 54 54 54 54 54 55 55 55 55 54 54 53 54 53 53 53 52 51 51 51 51 53 53 54 55 55
45 48 48 51 51 53 54 54 53 54 55 55 55 55 54 54 54 54 53 53 53 53 52 52 52 52 52 52 54 55 55 55
39 48 48 49 51 52 53 54 53 54 55 55 55 55 55 54 54 54 55 55 54 52 52 52 53 53 52 53 54 55 55 53
33 32 47 49 49 51 52 53 53 53 54 55 55 55 55 55 55 55 54 55 55 55 54 53 52 53 54 55 54 52 46 39
45 45 44 46 50 50 51 52 53 52 53 54 55 55 55 55 55 55 55 55 55 55 55 55 53 44 39 43 46 43 40 37
46 46 45 45 47 52 51 52 53 52 51 53 54 55 55 56 55 55 55 55 55 47 43 41 39 38 38 38 38 37 35 34
45 46 46 46 46 44 54 52 52 52 51 51 53 55 55 55 55 55 53 46 43 40 38 37 35 35 35 35 34 32 32 31

GFSFLT1_sfc_dewp_102.txt.gz
Dewpoint
53 55 57 57 57 57 57 57 57 59 60 59 60 61 60 62 62 61 64 60 56 52 53 51 50 50 54 53 51 50 50 49
53 56 57 56 56 56 56 56 58 59 58 58 58 59 60 60 62 62 62 60 56 52 54 52 53 52 54 52 50 49 49 49
54 55 56 56 56 55 56 56 58 58 58 57 57 59 60 60 61 61 61 61 58 54 55 53 56 53 54 51 50 49 49 49
53 54 54 55 55 55 56 56 57 58 58 58 59 59 60 59 60 59 59 59 58 56 57 55 56 55 53 51 49 48 48 48
53 54 54 54 55 55 56 56 56 57 58 58 58 58 58 58 59 59 57 57 57 56 56 56 55 54 53 51 49 49 48 47
52 53 53 55 56 56 55 56 56 56 57 57 57 57 58 59 59 58 56 56 56 58 57 56 55 55 55 53 51 51 49 50
51 53 54 54 55 55 56 56 56 56 56 56 56 56 56 56 57 57 56 56 56 57 58 57 56 56 56 56 56 53 53 52
51 53 53 53 54 54 56 56 56 57 56 56 56 56 55 55 56 56 55 55 56 56 56 57 56 56 56 57 57 56 55 55
51 52 53 53 53 54 56 56 56 56 56 55 55 55 55 55 55 55 55 55 55 56 55 54 55 55 56 57 57 57 56 55
51 52 53 54 54 54 55 56 56 56 57 56 54 54 54 54 54 55 55 55 56 55 55 54 54 54 56 57 56 56 56 56
51 52 53 54 54 54 55 55 56 56 57 56 55 54 53 53 54 53 53 55 55 55 54 53 53 54 55 55 55 56 56 56
49 51 53 54 54 54 53 54 53 55 57 56 55 54 54 53 52 51 51 52 53 54 53 53 52 54 55 55 55 55 55 55
48 49 53 53 53 54 53 53 53 53 55 57 56 55 54 53 52 52 52 51 52 53 53 52 51 52 53 55 54 54 55 54
49 50 52 53 53 53 53 54 53 53 54 56 56 56 54 54 53 53 53 53 53 51 52 52 52 52 52 52 53 53 54 55
47 52 53 53 54 54 53 54 54 54 54 53 55 55 55 54 54 53 53 53 53 52 52 52 51 51 51 51 50 51 52 52
45 46 51 50 54 54 55 54 54 55 54 53 53 55 55 55 54 54 53 53 53 53 52 52 52 51 51 51 51 51 50 41
44 44 45 47 49 53 54 55 55 55 54 54 54 54 55 55 54 54 54 54 53 53 52 52 52 51 41 43 49 46 42 38
44 44 46 48 49 50 50 54 55 54 54 55 55 55 55 55 55 54 54 54 54 55 53 49 42 40 39 40 39 39 37 35
45 45 47 48 47 47 49 53 54 55 54 54 55 55 54 55 55 54 54 51 47 43 40 38 36 36 37 37 35 34 33 33

GFSFLT1_sfc_dewp_105.txt.gz
Dewpoint
53 55 58 59 58 58 57 56 56 57 59 59 60 61 61 62 62 61 60 62 60 59 55 52 50 50 51 49 49 50 50 51
54 56 56 56 56 56 56 56 56 57 59 58 58 59 60 61 62 61 61 60 58 55 51 50 48 48 51 50 49 49 49 50
54 55 55 55 55 55 55 55 57 57 57 56 58 59 60 59 61 61 61 58 55 54 50 48 48 51 53 50 49 49 49 50
53 55 55 55 55 55 55 56 57 57 57 57 58 58 60 59 59 61 59 57 55 54 50 49 49 53 52 50 49 48 48 48
53 54 54 54 55 55 55 57 55 56 57 57 57 56 57 59 59 60 60 58 57 57 52 52 52 54 53 51 50 49 49 47
52 54 54 54 54 55 56 56 55 55 57 57 56 58 58 59 58 57 59 59 58 59 57 56 56 55 55 52 50 49 49 48
51 53 54 54 54 54 55 56 56 56 56 57 57 57 57 58 57 56 57 58 58 58 57 57 56 55 54 54 52 50 50 50
51 53 53 54 54 54 55 55 54 56 55 57 57 57 57 57 57 56 55 56 57 57 57 57 56 55 56 56 55 55 53 52
51 52 53 53 54 54 55 54 54 55 55 56 56 56 56 57 57 56 56 56 57 58 57 57 57 57 56 57 57 56 56 55
51 52 53 53 53 54 55 55 55 55 55 55 55 55 56 56 56 56 56 56 57 57 58 57 57 57 57 57 56 56 56 55
51 52 53 53 53 54 55 55 55 56 56 55 54 55 55 55 56 55 55 56 56 56 56 56 56 57 57 57 56 56 56 56
49 52 53 54 54 53 54 55 55 55 56 55 54 54 54 54 54 55 55 55 55 55 55 55 55 55 56 56 56 55 55 55
51 52 54 54 54 54 53 54 55 56 56 56 54 54 54 53 54 54 54 55 55 55 55 54 53 53 53 53 53 53 54 54
50 53 54 54 55 54 54 53 53 54 56 56 55 54 54 53 52 52 52 54 54 55 55 54 53 52 53 53 53 54 54 54
44 50 51 54 55 54 54 54 53 53 54 55 55 55 54 53 53 52 52 52 52 52 53 52 52 52 52 52 53 52 52 54
44 45 50 51 52 55 55 54 54 54 53 53 54 55 55 54 53 53 52 53 52 51 52 52 52 51 51 51 51 50 50 43
44 44 47 49 49 50 51 55 55 55 54 53 54 55 55 54 54 53 52 53 53 52 52 52 51 51 45 44 48 49 46 41
44 44 46 46 46 47 48 49 54 55 55 54 54 54 54 54 54 54 53 52 53 52 51 51 49 46 41 43 42 43 41 38
43 45 46 45 44 44 46 47 51 55 55 55 55 54 54 54 54 54 54 54 52 50 45 42 39 39 39 40 38 37 35 34

GFSFLT1_sfc_dewp_108.txt.gz
Dewpoint
34 48 55 58 58 59 58 58 57 57 58 60 61 61 61 61 61 61 61 60 61 62 61 58 57 55 53 52 49 51 52 52
52 54 56 57 57 58 57 57 56 58 59 59 59 59 60 61 61 61 61 60 61 61 59 55 56 54 52 50 50 50 50 52
53 54 55 57 57 57 57 57 57 58 58 58 59 59 60 60 61 61 60 61 60 59 56 54 53 52 50 50 49 49 49 52
50 54 54 55 56 56 56 56 57 57 56 58 57 58 59 59 59 60 61 59 58 56 55 53 50 51 49 49 49 49 49 50
46 53 54 55 56 55 55 56 56 56 56 56 55 56 57 58 59 60 60 58 56 53 52 49 50 51 50 49 50 50 50 48
42 52 54 55 55 55 55 56 55 55 55 56 56 55 57 59 57 59 57 57 56 53 51 50 52 52 51 49 50 50 50 49
44 52 54 54 54 55 55 55 55 54 55 57 55 55 58 57 57 57 56 56 56 54 53 53 55 55 53 52 51 51 50 50
48 52 53 54 54 54 54 55 55 55 55 57 57 56 58 57 56 56 57 56 57 55 55 55 55 55 54 53 52 52 51 51
48 51 52 53 53 53 54 55 55 55 55 56 57 57 58 58 57 56 57 57 57 57 55 55 56 56 56 55 55 55 54 53
49 51 53 53 53 53 54 53 54 54 54 56 56 56 57 57 57 56 57 58 58 57 56 55 54 55 56 56 55 56 55 55
50 52 52 53 54 54 54 53 53 53 54 54 55 55 56 57 57 56 56 57 58 58 57 56 56 55 56 56 55 55 55 55
52 52 53 53 54 54 54 54 54 54 54 54 53 53 55 56 56 56 56 56 57 57 57 57 57 56 56 56 55 55 54 55
49 53 54 54 53 54 54 55 55 55 55 55 54 53 54 54 55 55 56 56 56 56 57 57 56 57 57 56 56 56 55 55
45 50 53 54 54 54 53 54 54 55 56 55 53 53 53 54 54 55 55 55 55 55 55 55 56 56 56 56 56 55 55 55
44 46 49 51 55 55 54 53 53 54 55 56 55 53 53 53 53 53 54 55 55 54 54 54 54 54 54 55 54 54 54 54
45 46 46 47 49 52 55 54 54 53 53 54 55 55 54 54 53 52 52 53 54 54 54 54 54 53 53 53 53 53 52 47
46 46 45 45 45 47 48 50 54 54 53 53 54 55 54 54 54 53 52 52 52 52 53 53 52 51 45 45 50 52 50 44
43 45 46 43 43 44 45 47 49 54 54 53 53 54 55 54 54 53 52 52 53 52 51 50 48 47 42 43 43 48 46 42
42 42 44 41 41 41 43 45 46 48 54 54 54 54 54 54 54 54 53 52 52 52 50 49 46 43 40 41 39 39 37 37

GFSFLT1_sfc_dewp_111.txt.gz
Dewpoint
32 42 46 48 58 60 61 63 63 62 63 63 63 63 62 63 63 62 61 61 62 62 62 61 60 59 58 55 55 55 55 55
37 53 56 57 59 60 61 61 62 61 61 60 60 59 61 61 62 62 62 61 62 62 62 60 59 58 56 57 55 55 54 55
34 50 56 58 58 59 60 60 60 60 59 60 60 61 61 62 62 62 62 61 61 61 61 59 58 56 55 55 55 54 54 55
34 40 54 57 58 58 58 59 59 60 60 59 59 61 61 61 61 62 61 61 61 61 60 59 58 55 53 54 55 54 52 54
36 36 50 56 57 57 58 59 59 58 58 58 57 57 57 59 60 61 61 60 60 59 58 58 58 55 53 53 55 55 55 53
40 37 46 54 57 56 57 59 58 57 58 58 57 58 59 60 60 60 60 60 59 57 57 56 56 55 54 52 54 55 55 53
50 47 51 54 57 55 58 58 56 56 58 58 58 57 57 58 59 59 58 58 56 56 55 54 54 55 54 54 54 55 55 54
50 51 53 54 54 54 56 56 55 56 58 58 57 56 56 58 58 58 56 56 54 54 54 54 55 54 53 53 54 55 55 54
51 51 53 54 53 54 55 54 55 56 57 57 57 57 57 58 58 58 56 56 54 55 54 55 55 54 53 54 54 55 56 55
51 52 53 53 53 54 54 55 55 55 56 56 57 58 58 58 57 58 58 57 56 56 56 56 56 55 54 54 54 55 54 55
52 53 53 53 53 54 55 55 54 55 55 56 56 57 58 58 58 57 58 58 56 55 55 55 56 56 55 55 55 55 55 56
50 53 54 54 54 54 54 54 54 54 54 55 55 56 57 57 57 57 57 58 57 56 54 54 54 54 55 56 55 56 55 56
48 50 54 54 54 54 54 54 55 55 55 54 55 55 56 57 56 57 57 57 58 58 56 55 54 53 53 54 55 55 54 54
44 46 48 50 54 54 54 55 55 55 55 55 55 55 55 55 56 56 57 56 57 57 57 56 55 55 55 54 54 55 54 54
43 45 45 46 48 54 54 55 55 55 56 56 55 55 55 55 55 55 56 56 56 56 56 56 56 56 55 55 54 55 55 55
45 47 46 45 45 46 49 53 55 55 56 55 55 55 55 55 55 55 55 56 55 55 55 55 55 56 56 56 56 55 55 54
45 47 45 43 43 43 44 46 48 53 54 55 55 55 55 55 55 54 54 55 55 55 55 54 54 53 46 45 52 54 52 47
41 42 42 41 41 42 43 45 47 49 54 54 55 55 55 55 55 54 53 54 54 54 54 54 53 53 44 45 45 52 49 44
39 40 38 38 39 40 42 43 44 46 46 51 54 55 55 55 55 54 54 54 53 53 52 52 52 51 42 42 41 47 44 41

GFSFLT1_sfc_dewp_114.txt.gz
Dewpoint
30 31 34 42 47 51 58 61 64 65 65 65 64 64 64 64 64 64 64 64 63 63 63 62 63 62 61 60 60 58 56 56
30 31 39 51 53 54 58 61 63 63 63 63 63 63 63 63 63 63 62 63 62 63 62 62 62 61 61 60 60 58 57 57
26 30 43 54 54 56 58 59 62 62 62 62 62 61 62 61 62 63 63 62 62 62 62 62 61 60 60 59 59 58 57 57
30 33 39 50 55 58 57 59 61 63 63 61 61 61 61 62 62 63 62 62 62 61 62 61 60 60 58 57 59 58 56 57
38 37 37 45 55 58 58 59 60 61 62 61 60 58 56 59 60 61 62 62 62 62 61 60 60 59 58 56 57 56 57 55
45 43 40 41 55 58 59 60 60 61 62 60 58 56 57 59 60 61 62 62 62 62 61 60 59 58 58 56 56 56 56 55
46 48 45 46 57 58 59 59 59 60 60 60 58 58 58 59 59 60 61 61 61 60 59 60 59 58 57 57 57 56 58 57
48 48 49 50 55 56 58 58 58 58 59 58 58 59 58 57 57 58 59 59 57 57 58 58 58 57 56 57 57 57 58 57
50 51 53 53 54 55 57 57 56 57 59 58 59 58 57 57 58 57 59 58 57 56 56 56 57 56 56 56 56 57 57 58
51 52 54 54 54 54 56 56 56 57 58 58 58 57 57 56 58 59 58 58 56 54 55 55 56 55 56 56 56 57 58 58
52 53 53 54 53 54 56 56 56 56 57 57 56 56 57 58 60 59 58 57 56 54 55 56 55 55 55 56 56 57 58 58
51 52 54 54 54 54 55 55 56 56 55 56 56 56 56 58 59 59 58 58 56 55 56 56 55 55 55 55 55 55 55 56
48 50 50 50 54 54 54 55 56 56 56 55 55 56 57 58 58 58 58 57 56 55 56 55 55 54 54 54 54 54 54 55
44 44 46 47 48 53 54 54 55 56 55 54 55 56 56 56 58 58 58 58 57 55 54 54 54 55 55 55 54 54 53 54
44 45 45 45 46 47 48 54 55 55 55 55 55 55 56 56 57 57 58 57 57 57 55 54 54 53 54 54 55 55 55 54
44 45 45 44 44 45 45 48 50 54 55 55 55 56 56 56 57 57 57 58 57 57 57 56 55 54 54 53 53 53 54 54
43 43 42 42 42 43 44 45 47 50 53 55 55 55 54 56 56 56 57 57 57 57 56 56 55 55 47 46 52 53 54 53
41 40 39 40 41 42 44 44 46 47 48 54 56 54 54 54 55 55 55 56 56 56 56 56 56 55 44 45 45 54 54 49
39 38 38 38 38 41 42 42 42 42 42 44 45 51 55 55 55 54 55 55 56 56 56 56 55 54 43 44 43 50 46 43

GFSFLT1_sfc_dewp_117.txt.gz
Dewpoint
30 31 33 32 39 41 47 56 63 67 66 66 64 64 65 65 64 64 66 66 65 65 65 65 66 65 63 61 60 60 58 56
31 34 34 34 42 47 50 54 62 64 64 64 64 62 63 63 63 64 65 66 64 65 65 64 63 62 62 61 61 59 58 57
30 32 35 40 41 51 52 55 59 63 64 64 63 63 63 63 62 63 64 64 64 64 64 63 63 62 62 60 60 58 58 58
25 28 32 37 46 52 53 55 58 62 63 63 62 62 63 61 61 62 63 63 63 63 63 63 62 62 61 60 60 57 56 57
22 26 32 38 45 52 54 55 57 63 64 62 62 60 59 60 60 61 62 63 62 62 62 62 62 61 61 60 60 59 58 55
35 35 36 36 43 53 57 56 57 63 63 62 61 60 59 58 58 60 61 62 63 62 62 61 61 61 61 59 60 59 58 57
40 41 46 42 54 57 59 57 57 61 62 62 61 61 58 57 57 58 61 62 62 62 62 61 60 60 60 59 59 59 58 57
43 44 46 44 52 57 58 58 57 61 62 62 61 60 59 58 58 57 59 61 62 62 62 61 60 59 59 59 59 59 58 57
46 49 50 51 54 56 56 57 59 59 61 61 60 59 58 57 57 56 57 60 60 60 61 60 60 59 59 58 59 59 59 59
49 51 53 54 54 53 55 57 58 58 60 61 59 59 57 57 57 58 58 59 60 60 58 58 59 58 58 58 58 58 58 59
51 52 53 53 53 54 56 57 57 57 59 59 57 58 57 57 59 59 59 60 59 57 56 56 56 57 57 57 57 58 58 58
49 51 52 53 55 54 55 56 56 57 58 58 57 56 57 57 59 59 59 59 58 56 55 55 55 55 56 56 56 57 57 58
47 49 50 50 51 54 54 55 57 57 57 57 57 55 56 57 58 59 59 58 57 55 55 55 55 55 55 55 56 57 57 57
44 45 46 48 48 48 49 55 55 57 57 56 56 56 56 57 57 58 59 57 56 55 56 55 55 54 55 55 56 56 57 57
44 44 45 45 46 46 47 48 50 56 56 55 55 56 56 56 58 58 58 57 56 55 55 55 55 54 55 55 55 55 56 55
42 44 45 44 44 45 46 46 47 49 52 54 55 56 57 57 57 57 58 58 57 55 55 54 54 55 55 54 54 54 54 54
41 41 41 43 43 43 44 45 46 46 46 50 55 55 55 56 56 58 58 57 58 57 55 54 53 53 47 45 51 54 54 53
39 39 39 39 42 43 43 43 44 43 43 44 46 54 55 56 55 55 56 57 57 57 57 56 55 54 45 45 44 53 53 53
38 37 37 37 38 41 42 41 41 41 40 40 41 43 47 53 55 55 55 57 57 56 57 56 56 55 43 44 43 53 53 49

GFSFLT1_sfc_dewp_120.txt.gz
Dewpoint
31 32 32 32 43 47 56 60 64 67 68 68 67 66 66 66 67 66 67 67 66 65 65 64 64 64 62 61 61 61 60 60
32 37 41 42 46 52 53 59 63 66 66 66 65 64 65 65 65 65 65 65 65 65 64 64 64 63 62 61 61 59 59 58
34 39 44 48 47 51 54 53 62 63 65 65 64 64 64 63 64 64 64 64 65 64 64 63 63 63 62 61 60 59 58 58
32 35 42 48 49 55 54 54 57 62 65 65 64 63 63 63 63 63 63 63 64 63 63 63 63 63 61 61 60 59 56 57
30 32 35 43 50 56 56 56 56 61 65 63 63 61 61 61 62 62 63 63 63 63 63 63 62 62 61 61 61 59 58 56
24 26 29 42 47 56 57 57 57 63 63 63 62 61 61 61 61 61 61 62 62 62 62 62 62 62 61 61 61 59 58 56
39 43 46 46 58 59 60 58 57 64 63 63 62 62 61 60 60 61 61 61 62 62 61 61 61 61 61 61 61 60 59 58
44 43 46 49 56 60 60 59 58 63 63 63 63 62 62 60 59 59 60 61 62 62 61 61 61 61 61 61 60 60 60 58
47 50 51 52 57 59 58 58 58 62 62 62 63 61 61 60 60 59 60 61 61 62 62 61 61 60 60 60 60 60 60 59
50 52 54 54 55 56 57 57 58 60 61 61 61 61 60 59 59 59 59 60 61 61 61 61 61 60 59 59 59 59 59 59
51 52 53 53 53 55 56 57 59 59 59 60 61 59 59 59 59 59 60 61 59 59 59 59 59 59 59 59 58 58 59 59
49 50 51 52 54 54 55 56 57 58 58 59 60 59 59 58 58 60 59 60 59 57 55 56 56 57 58 58 58 58 58 58
48 49 50 49 50 50 50 56 57 58 58 58 59 59 58 58 58 60 60 59 58 57 56 55 55 56 56 56 56 57 58 58
45 45 46 46 47 47 48 49 50 55 58 58 57 56 56 57 58 59 59 58 57 56 55 55 55 55 55 56 56 57 57 58
44 44 44 45 46 46 47 47 49 50 52 57 57 56 56 56 58 59 58 58 56 55 55 55 55 55 55 56 56 57 57 57
43 43 43 43 44 45 45 46 46 47 48 50 54 57 57 56 57 58 58 58 56 56 55 55 55 54 55 55 55 55 56 55
40 40 41 43 43 43 43 44 44 45 44 44 45 48 55 57 58 58 58 57 56 55 55 54 54 54 45 46 51 54 54 53
38 38 38 39 43 43 42 42 42 42 42 42 42 43 45 50 56 58 57 57 57 56 55 54 53 53 43 44 45 53 52 51
36 36 36 36 38 40 41 40 40 39 40 40 40 41 41 43 48 56 57 57 57 56 56 55 54 53 43 44 42 51 50 50